| time (UTC) | temp F | wind direction | speed MPH | gust MPH | rain 1hr in | rain 24hr in | rain mn in | humidity % | barometer mb |
| 20260506213307 | 54 | 291 | 6.0 | 11.0 | 0.00 | 0.00 | 0.00 | 46 | 1013.3 |
| 20260506213216 | 54 | 297 | 6.0 | 11.0 | 0.00 | 0.00 | 0.00 | 47 | 1013.2 |
| 20260506213126 | 54 | 288 | 5.0 | 11.0 | 0.00 | 0.00 | 0.00 | 48 | 1013.1 |
| 20260506213049 | 54 | 266 | 4.0 | 11.0 | 0.00 | 0.00 | 0.00 | 47 | 1013.2 |
| 20260506212917 | 54 | 273 | 3.0 | 10.0 | 0.00 | 0.00 | 0.00 | 46 | 1013.2 |
| 20260506212828 | 54 | 267 | 3.0 | 10.0 | 0.00 | 0.00 | 0.00 | 46 | 1013.1 |
| 20260506212738 | 54 | 252 | 4.0 | 10.0 | 0.00 | 0.00 | 0.00 | 47 | 1013.2 |
| 20260506212627 | 54 | 291 | 6.0 | 10.0 | 0.00 | 0.00 | 0.00 | 44 | 1013.2 |
| 20260506212502 | 54 | 299 | 6.0 | 9.0 | 0.00 | 0.00 | 0.00 | 46 | 1013.2 |
| 20260506212413 | 54 | 325 | 4.0 | 9.0 | 0.00 | 0.00 | 0.00 | 47 | 1013.2 |
| 20260506212307 | 54 | 265 | 3.0 | 9.0 | 0.00 | 0.00 | 0.00 | 46 | 1013.2 |
| 20260506212217 | 54 | 276 | 3.0 | 11.0 | 0.00 | 0.00 | 0.00 | 46 | 1013.2 |
| 20260506212107 | 54 | 274 | 4.0 | 11.0 | 0.00 | 0.00 | 0.00 | 45 | 1013.2 |
| 20260506212018 | 54 | 278 | 5.0 | 11.0 | 0.00 | 0.00 | 0.00 | 45 | 1013.2 |
| 20260506211928 | 54 | 265 | 4.0 | 11.0 | 0.00 | 0.00 | 0.00 | 45 | 1013.2 |
| 20260506211818 | 54 | 243 | 3.0 | 11.0 | 0.00 | 0.00 | 0.00 | 47 | 1013.2 |
| 20260506211728 | 54 | 304 | 4.0 | 11.0 | 0.00 | 0.00 | 0.00 | 46 | 1013.2 |
| 20260506211558 | 54 | 300 | 6.0 | 15.0 | 0.00 | 0.00 | 0.00 | 46 | 1013.2 |
| 20260506211523 | 54 | 316 | 6.0 | 15.0 | 0.00 | 0.00 | 0.00 | 45 | 1013.2 |
| 20260506211413 | 54 | 321 | 7.0 | 15.0 | 0.00 | 0.00 | 0.00 | 44 | 1013.2 |
| 20260506211324 | 54 | 275 | 6.0 | 15.0 | 0.00 | 0.00 | 0.00 | 45 | 1013.2 |
| 20260506211214 | 54 | 304 | 6.0 | 15.0 | 0.00 | 0.00 | 0.00 | 46 | 1013.2 |
| 20260506211125 | 54 | 263 | 5.0 | 15.0 | 0.00 | 0.00 | 0.00 | 44 | 1013.2 |
| 20260506211035 | 54 | 253 | 6.0 | 15.0 | 0.00 | 0.00 | 0.00 | 42 | 1013.3 |
| 20260506210902 | 54 | 310 | 8.0 | 15.0 | 0.00 | 0.00 | 0.00 | 42 | 1013.2 |
| 20260506210813 | 54 | 304 | 6.0 | 15.0 | 0.00 | 0.00 | 0.00 | 42 | 1013.2 |
| 20260506210704 | 54 | 255 | 4.0 | 12.0 | 0.00 | 0.00 | 0.00 | 46 | 1013.2 |
| 20260506210615 | 54 | 223 | 3.0 | 12.0 | 0.00 | 0.00 | 0.00 | 45 | 1013.2 |
| 20260506210511 | 54 | 284 | 3.0 | 12.0 | 0.00 | 0.00 | 0.00 | 47 | 1013.2 |
| 20260506210401 | 54 | 249 | 6.0 | 12.0 | 0.00 | 0.00 | 0.00 | 45 | 1013.2 |
| 20260506210313 | 54 | 281 | 7.0 | 12.0 | 0.00 | 0.00 | 0.00 | 43 | 1013.2 |
| 20260506210222 | 54 | 319 | 7.0 | 12.0 | 0.00 | 0.00 | 0.00 | 43 | 1013.2 |
| 20260506210132 | 54 | 296 | 8.0 | 12.0 | 0.00 | 0.00 | 0.00 | 44 | 1013.3 |
| 20260506210055 | 54 | 265 | 8.0 | 12.0 | 0.00 | 0.00 | 0.00 | 45 | 1013.3 |
| 20260506205923 | 54 | 305 | 8.0 | 12.0 | 0.00 | 0.00 | 0.00 | 45 | 1013.3 |
| 20260506205835 | 54 | 292 | 7.0 | 11.0 | 0.00 | 0.00 | 0.00 | 44 | 1013.3 |
| 20260506205704 | 54 | 303 | 4.0 | 13.0 | 0.00 | 0.00 | 0.00 | 45 | 1013.3 |
| 20260506205614 | 54 | 317 | 3.0 | 13.0 | 0.00 | 0.00 | 0.00 | 45 | 1013.2 |
| 20260506205509 | 54 | 248 | 3.0 | 13.0 | 0.00 | 0.00 | 0.00 | 47 | 1013.3 |
| 20260506205420 | 54 | 305 | 5.0 | 13.0 | 0.00 | 0.00 | 0.00 | 46 | 1013.3 |
| 20260506205329 | 54 | 302 | 6.0 | 13.0 | 0.00 | 0.00 | 0.00 | 44 | 1013.3 |
| 20260506205159 | 54 | 325 | 7.0 | 13.0 | 0.00 | 0.00 | 0.00 | 44 | 1013.3 |
| 20260506205109 | 54 | 300 | 7.0 | 13.0 | 0.00 | 0.00 | 0.00 | 44 | 1013.2 |
| 20260506205000 | 54 | 307 | 6.0 | 13.0 | 0.00 | 0.00 | 0.00 | 45 | 1013.3 |
| 20260506204910 | 54 | 259 | 6.0 | 13.0 | 0.00 | 0.00 | 0.00 | 44 | 1013.4 |
| 20260506204803 | 54 | 300 | 7.0 | 12.0 | 0.00 | 0.00 | 0.00 | 45 | 1013.4 |
| 20260506204713 | 54 | 309 | 7.0 | 13.0 | 0.00 | 0.00 | 0.00 | 44 | 1013.4 |
| 20260506204624 | 54 | 301 | 7.0 | 13.0 | 0.00 | 0.00 | 0.00 | 44 | 1013.4 |
| 20260506204550 | 54 | 232 | 5.0 | 13.0 | 0.00 | 0.00 | 0.00 | 45 | 1013.4 |
| 20260506204418 | 54 | 271 | 5.0 | 13.0 | 0.00 | 0.00 | 0.00 | 45 | 1013.4 |
| 20260506204309 | 54 | 320 | 4.0 | 13.0 | 0.00 | 0.00 | 0.00 | 45 | 1013.5 |
| 20260506204220 | 54 | 227 | 4.0 | 13.0 | 0.00 | 0.00 | 0.00 | 44 | 1013.5 |
| 20260506204110 | 54 | 266 | 5.0 | 13.0 | 0.00 | 0.00 | 0.00 | 46 | 1013.5 |
| 20260506204000 | 54 | 279 | 8.0 | 13.0 | 0.00 | 0.00 | 0.00 | 45 | 1013.5 |
| 20260506203910 | 54 | 251 | 9.0 | 13.0 | 0.00 | 0.00 | 0.00 | 43 | 1013.6 |
| 20260506203800 | 54 | 295 | 8.0 | 12.0 | 0.00 | 0.00 | 0.00 | 44 | 1013.5 |
| 20260506203712 | 54 | 304 | 5.0 | 12.0 | 0.00 | 0.00 | 0.00 | 44 | 1013.5 |
| 20260506203623 | 54 | 234 | 4.0 | 12.0 | 0.00 | 0.00 | 0.00 | 46 | 1013.5 |
| 20260506203518 | 54 | 267 | 6.0 | 12.0 | 0.00 | 0.00 | 0.00 | 44 | 1013.4 |
| 20260506203428 | 54 | 286 | 7.0 | 12.0 | 0.00 | 0.00 | 0.00 | 43 | 1013.5 |
| 20260506203321 | 54 | 327 | 6.0 | 12.0 | 0.00 | 0.00 | 0.00 | 47 | 1013.6 |
| 20260506203231 | 54 | 222 | 4.0 | 12.0 | 0.00 | 0.00 | 0.00 | 44 | 1013.5 |
| 20260506203100 | 54 | 234 | 4.0 | 14.0 | 0.00 | 0.00 | 0.00 | 44 | 1013.7 |
| 20260506203022 | 54 | 284 | 6.0 | 14.0 | 0.00 | 0.00 | 0.00 | 44 | 1013.6 |
| 20260506202911 | 54 | 300 | 5.0 | 14.0 | 0.00 | 0.00 | 0.00 | 43 | 1013.7 |
| 20260506202802 | 54 | 303 | 5.0 | 14.0 | 0.00 | 0.00 | 0.00 | 44 | 1013.7 |
| 20260506202712 | 54 | 311 | 5.0 | 14.0 | 0.00 | 0.00 | 0.00 | 44 | 1013.8 |
| 20260506202621 | 54 | 245 | 5.0 | 14.0 | 0.00 | 0.00 | 0.00 | 47 | 1013.8 |
| 20260506202532 | 54 | 234 | 8.0 | 14.0 | 0.00 | 0.00 | 0.00 | 44 | 1013.7 |
| 20260506202425 | 54 | 280 | 9.0 | 14.0 | 0.00 | 0.00 | 0.00 | 44 | 1013.9 |
| 20260506202316 | 54 | 287 | 8.0 | 14.0 | 0.00 | 0.00 | 0.00 | 44 | 1013.8 |
| 20260506202207 | 54 | 282 | 7.0 | 14.0 | 0.00 | 0.00 | 0.00 | 44 | 1013.9 |
| 20260506202117 | 54 | 309 | 7.0 | 14.0 | 0.00 | 0.00 | 0.00 | 45 | 1013.8 |
| 20260506202007 | 54 | 257 | 6.0 | 14.0 | 0.00 | 0.00 | 0.00 | 44 | 1013.8 |
| 20260506201858 | 54 | 251 | 5.0 | 14.0 | 0.00 | 0.00 | 0.00 | 47 | 1013.8 |
| 20260506201808 | 54 | 296 | 7.0 | 14.0 | 0.00 | 0.00 | 0.00 | 45 | 1013.8 |
| 20260506201719 | 54 | 254 | 8.0 | 14.0 | 0.00 | 0.00 | 0.00 | 42 | 1013.9 |
| 20260506201610 | 54 | 305 | 8.0 | 14.0 | 0.00 | 0.00 | 0.00 | 43 | 1013.8 |
| 20260506201532 | 54 | 283 | 9.0 | 14.0 | 0.00 | 0.00 | 0.00 | 43 | 1013.9 |
| 20260506201406 | 54 | 306 | 8.0 | 14.0 | 0.00 | 0.00 | 0.00 | 43 | 1013.9 |
| 20260506201317 | 54 | 294 | 8.0 | 14.0 | 0.00 | 0.00 | 0.00 | 44 | 1014.0 |
| 20260506201228 | 54 | 283 | 9.0 | 14.0 | 0.00 | 0.00 | 0.00 | 44 | 1013.9 |
| 20260506201118 | 54 | 317 | 8.0 | 14.0 | 0.00 | 0.00 | 0.00 | 43 | 1013.9 |
| 20260506201006 | 54 | 277 | 4.0 | 12.0 | 0.00 | 0.00 | 0.00 | 44 | 1014.1 |
| 20260506200917 | 54 | 284 | 5.0 | 13.0 | 0.00 | 0.00 | 0.00 | 46 | 1014.0 |
| 20260506200809 | 54 | 266 | 7.0 | 15.0 | 0.00 | 0.00 | 0.00 | 43 | 1014.0 |
| 20260506200700 | 54 | 300 | 5.0 | 15.0 | 0.00 | 0.00 | 0.00 | 44 | 1014.0 |
| 20260506200611 | 54 | 258 | 5.0 | 15.0 | 0.00 | 0.00 | 0.00 | 45 | 1014.0 |
| 20260506200505 | 54 | 246 | 6.0 | 15.0 | 0.00 | 0.00 | 0.00 | 44 | 1014.0 |
| 20260506200417 | 54 | 269 | 5.0 | 15.0 | 0.00 | 0.00 | 0.00 | 46 | 1014.1 |
| 20260506200309 | 54 | 262 | 7.0 | 15.0 | 0.00 | 0.00 | 0.00 | 44 | 1014.1 |
| 20260506200158 | 54 | 290 | 8.0 | 15.0 | 0.00 | 0.00 | 0.00 | 43 | 1014.1 |
| 20260506200105 | 54 | 291 | 7.0 | 15.0 | 0.00 | 0.00 | 0.00 | 45 | 1014.0 |
| 20260506200027 | 54 | 274 | 7.0 | 15.0 | 0.00 | 0.00 | 0.00 | 46 | 1014.0 |
| 20260506195858 | 54 | 304 | 7.0 | 15.0 | 0.00 | 0.00 | 0.00 | 44 | 1014.0 |
| 20260506195809 | 54 | 315 | 6.0 | 15.0 | 0.00 | 0.00 | 0.00 | 44 | 1014.1 |
| 20260506195720 | 54 | 309 | 8.0 | 15.0 | 0.00 | 0.00 | 0.00 | 44 | 1014.1 |
| 20260506195609 | 54 | 306 | 8.0 | 15.0 | 0.00 | 0.00 | 0.00 | 43 | 1014.1 |
| 20260506195502 | 54 | 328 | 8.0 | 15.0 | 0.00 | 0.00 | 0.00 | 44 | 1014.1 |
| 20260506195415 | 54 | 311 | 8.0 | 15.0 | 0.00 | 0.00 | 0.00 | 42 | 1014.1 |
| 20260506195306 | 54 | 302 | 9.0 | 15.0 | 0.00 | 0.00 | 0.00 | 43 | 1014.1 |
| 20260506195217 | 54 | 277 | 8.0 | 15.0 | 0.00 | 0.00 | 0.00 | 44 | 1014.1 |
| 20260506195128 | 54 | 294 | 5.0 | 12.0 | 0.00 | 0.00 | 0.00 | 47 | 1014.0 |
| 20260506195040 | 54 | 267 | 3.0 | 12.0 | 0.00 | 0.00 | 0.00 | 48 | 1014.0 |
| 20260506194930 | 54 | 262 | 4.0 | 12.0 | 0.00 | 0.00 | 0.00 | 42 | 1014.0 |
| 20260506194820 | 54 | 313 | 5.0 | 15.0 | 0.00 | 0.00 | 0.00 | 42 | 1014.1 |
| 20260506194732 | 54 | 312 | 7.0 | 15.0 | 0.00 | 0.00 | 0.00 | 44 | 1014.1 |
| 20260506194643 | 54 | 277 | 7.0 | 15.0 | 0.00 | 0.00 | 0.00 | 44 | 1014.2 |
| 20260506194544 | 54 | 298 | 5.0 | 15.0 | 0.00 | 0.00 | 0.00 | 46 | 1014.1 |
| 20260506194417 | 54 | 254 | 4.0 | 15.0 | 0.00 | 0.00 | 0.00 | 49 | 1014.1 |
| 20260506194308 | 54 | 287 | 6.0 | 15.0 | 0.00 | 0.00 | 0.00 | 45 | 1014.2 |
| 20260506194220 | 54 | 290 | 9.0 | 15.0 | 0.00 | 0.00 | 0.00 | 44 | 1014.2 |
| 20260506194111 | 54 | 296 | 11.0 | 15.0 | 0.00 | 0.00 | 0.00 | 41 | 1014.1 |
| 20260506194000 | 54 | 293 | 10.0 | 15.0 | 0.00 | 0.00 | 0.00 | 42 | 1014.2 |
| 20260506193910 | 54 | 282 | 9.0 | 14.0 | 0.00 | 0.00 | 0.00 | 43 | 1014.2 |
| 20260506193802 | 54 | 305 | 8.0 | 14.0 | 0.00 | 0.00 | 0.00 | 43 | 1014.2 |
| 20260506193713 | 55 | 289 | 10.0 | 14.0 | 0.00 | 0.00 | 0.00 | 43 | 1014.1 |
| 20260506193623 | 55 | 287 | 8.0 | 14.0 | 0.00 | 0.00 | 0.00 | 43 | 1014.2 |
| 20260506193459 | 55 | 348 | 5.0 | 11.0 | 0.00 | 0.00 | 0.00 | 47 | 1014.3 |
| 20260506193411 | 54 | 254 | 5.0 | 11.0 | 0.00 | 0.00 | 0.00 | 45 | 1014.3 |
| 20260506193323 | 54 | 281 | 5.0 | 11.0 | 0.00 | 0.00 | 0.00 | 45 | 1014.2 |
| 20260506193231 | 54 | 301 | 5.0 | 11.0 | 0.00 | 0.00 | 0.00 | 45 | 1014.2 |
| 20260506193100 | 55 | 252 | 7.0 | 11.0 | 0.00 | 0.00 | 0.00 | 44 | 1014.2 |
| 20260506193022 | 55 | 281 | 7.0 | 11.0 | 0.00 | 0.00 | 0.00 | 41 | 1014.2 |
| 20260506192912 | 55 | 266 | 7.0 | 11.0 | 0.00 | 0.00 | 0.00 | 43 | 1014.3 |
| 20260506192822 | 55 | 309 | 7.0 | 11.0 | 0.00 | 0.00 | 0.00 | 42 | 1014.3 |
| 20260506192711 | 55 | 275 | 6.0 | 11.0 | 0.00 | 0.00 | 0.00 | 46 | 1014.3 |
| 20260506192602 | 55 | 271 | 6.0 | 11.0 | 0.00 | 0.00 | 0.00 | 45 | 1014.2 |
| 20260506192512 | 55 | 271 | 5.0 | 11.0 | 0.00 | 0.00 | 0.00 | 49 | 1014.3 |
| 20260506192407 | 55 | 242 | 6.0 | 10.0 | 0.00 | 0.00 | 0.00 | 45 | 1014.3 |
| 20260506192318 | 55 | 247 | 6.0 | 10.0 | 0.00 | 0.00 | 0.00 | 45 | 1014.3 |
| 20260506192207 | 55 | 280 | 5.0 | 10.0 | 0.00 | 0.00 | 0.00 | 47 | 1014.3 |
| 20260506192057 | 54 | 319 | 4.0 | 10.0 | 0.00 | 0.00 | 0.00 | 49 | 1014.3 |
| 20260506192008 | 54 | 271 | 4.0 | 10.0 | 0.00 | 0.00 | 0.00 | 44 | 1014.3 |
| 20260506191918 | 54 | 265 | 5.0 | 10.0 | 0.00 | 0.00 | 0.00 | 45 | 1014.2 |
| 20260506191828 | 54 | 301 | 5.0 | 10.0 | 0.00 | 0.00 | 0.00 | 46 | 1014.3 |
| 20260506191719 | 54 | 259 | 5.0 | 10.0 | 0.00 | 0.00 | 0.00 | 46 | 1014.2 |
| 20260506191609 | 54 | 277 | 5.0 | 10.0 | 0.00 | 0.00 | 0.00 | 46 | 1014.2 |
| 20260506191531 | 54 | 251 | 5.0 | 10.0 | 0.00 | 0.00 | 0.00 | 46 | 1014.2 |
| 20260506191424 | 54 | 306 | 4.0 | 10.0 | 0.00 | 0.00 | 0.00 | 46 | 1014.3 |
| 20260506191335 | 54 | 313 | 5.0 | 16.0 | 0.00 | 0.00 | 0.00 | 44 | 1014.3 |
| 20260506191206 | 54 | 261 | 6.0 | 16.0 | 0.00 | 0.00 | 0.00 | 45 | 1014.2 |
| 20260506191117 | 54 | 248 | 7.0 | 16.0 | 0.00 | 0.00 | 0.00 | 45 | 1014.3 |
| 20260506191027 | 54 | 230 | 6.0 | 16.0 | 0.00 | 0.00 | 0.00 | 47 | 1014.2 |
| 20260506190915 | 54 | 265 | 5.0 | 16.0 | 0.00 | 0.00 | 0.00 | 45 | 1014.2 |
| 20260506190808 | 54 | 250 | 3.0 | 16.0 | 0.00 | 0.00 | 0.00 | 43 | 1014.2 |
| 20260506190700 | 54 | 279 | 5.0 | 16.0 | 0.00 | 0.00 | 0.00 | 43 | 1014.3 |
| 20260506190610 | 54 | 266 | 8.0 | 16.0 | 0.00 | 0.00 | 0.00 | 42 | 1014.3 |
| 20260506190504 | 54 | 286 | 11.0 | 16.0 | 0.00 | 0.00 | 0.00 | 43 | 1014.3 |
| 20260506190414 | 54 | 269 | 9.0 | 16.0 | 0.00 | 0.00 | 0.00 | 45 | 1014.2 |
| 20260506190306 | 54 | 299 | 7.0 | 15.0 | 0.00 | 0.00 | 0.00 | 44 | 1014.1 |
| 20260506190216 | 53 | 285 | 5.0 | 15.0 | 0.00 | 0.00 | 0.00 | 49 | 1014.1 |
| 20260506190107 | 53 | 350 | 5.0 | 15.0 | 0.00 | 0.00 | 0.00 | 48 | 1014.1 |
| 20260506190031 | 53 | 276 | 6.0 | 15.0 | 0.00 | 0.00 | 0.00 | 46 | 1014.1 |
| 20260506185901 | 53 | 293 | 8.0 | 15.0 | 0.00 | 0.00 | 0.00 | 42 | 1014.1 |
| 20260506185812 | 53 | 291 | 9.0 | 15.0 | 0.00 | 0.00 | 0.00 | 45 | 1014.1 |
| 20260506185703 | 53 | 303 | 11.0 | 15.0 | 0.00 | 0.00 | 0.00 | 43 | 1014.1 |
| 20260506185617 | 53 | 292 | 10.0 | 15.0 | 0.00 | 0.00 | 0.00 | 43 | 1014.0 |
| 20260506185508 | 53 | 282 | 6.0 | 15.0 | 0.00 | 0.00 | 0.00 | 46 | 1014.1 |
| 20260506185419 | 53 | 309 | 7.0 | 15.0 | 0.00 | 0.00 | 0.00 | 48 | 1014.2 |
| 20260506185332 | 53 | 360 | 8.0 | 15.0 | 0.00 | 0.00 | 0.00 | 43 | 1014.1 |
| 20260506185200 | 53 | 315 | 7.0 | 15.0 | 0.00 | 0.00 | 0.00 | 46 | 1014.3 |
| 20260506185112 | 53 | 279 | 7.0 | 15.0 | 0.00 | 0.00 | 0.00 | 44 | 1014.2 |
| 20260506185022 | 53 | 328 | 9.0 | 17.0 | 0.00 | 0.00 | 0.00 | 43 | 1014.2 |
| 20260506184932 | 53 | 270 | 9.0 | 17.0 | 0.00 | 0.00 | 0.00 | 44 | 1014.2 |
| 20260506184802 | 53 | 278 | 6.0 | 17.0 | 0.00 | 0.00 | 0.00 | 45 | 1014.2 |
| 20260506184712 | 53 | 284 | 6.0 | 17.0 | 0.00 | 0.00 | 0.00 | 45 | 1014.2 |
| 20260506184607 | 53 | 336 | 7.0 | 17.0 | 0.00 | 0.00 | 0.00 | 43 | 1014.2 |
| 20260506184528 | 53 | 321 | 7.0 | 17.0 | 0.00 | 0.00 | 0.00 | 44 | 1014.2 |
| 20260506184419 | 53 | 315 | 8.0 | 17.0 | 0.00 | 0.00 | 0.00 | 43 | 1014.3 |
| 20260506184329 | 53 | 317 | 9.0 | 17.0 | 0.00 | 0.00 | 0.00 | 44 | 1014.2 |
| 20260506184159 | 53 | 327 | 10.0 | 17.0 | 0.00 | 0.00 | 0.00 | 43 | 1014.2 |
| 20260506184110 | 53 | 306 | 7.0 | 15.0 | 0.00 | 0.00 | 0.00 | 44 | 1014.1 |
| 20260506184001 | 53 | 317 | 5.0 | 15.0 | 0.00 | 0.00 | 0.00 | 44 | 1014.3 |
| 20260506183910 | 53 | 263 | 7.0 | 15.0 | 0.00 | 0.00 | 0.00 | 43 | 1014.2 |
| 20260506183802 | 53 | 211 | 8.0 | 15.0 | 0.00 | 0.00 | 0.00 | 42 | 1014.3 |
| 20260506183718 | 53 | 268 | 8.0 | 15.0 | 0.00 | 0.00 | 0.00 | 42 | 1014.3 |
| 20260506183630 | 53 | 296 | 10.0 | 15.0 | 0.00 | 0.00 | 0.00 | 42 | 1014.3 |
| 20260506183519 | 53 | 304 | 7.0 | 15.0 | 0.00 | 0.00 | 0.00 | 45 | 1014.2 |
| 20260506183429 | 53 | 286 | 3.0 | 12.0 | 0.00 | 0.00 | 0.00 | 44 | 1014.2 |
| 20260506183300 | 53 | 297 | 3.0 | 12.0 | 0.00 | 0.00 | 0.00 | 45 | 1014.3 |
| 20260506183211 | 53 | 285 | 3.0 | 13.0 | 0.00 | 0.00 | 0.00 | 45 | 1014.4 |
| 20260506183102 | 53 | 273 | 5.0 | 13.0 | 0.00 | 0.00 | 0.00 | 45 | 1014.4 |
| 20260506183024 | 53 | 291 | 6.0 | 13.0 | 0.00 | 0.00 | 0.00 | 46 | 1014.4 |
| 20260506182913 | 53 | 261 | 7.0 | 16.0 | 0.00 | 0.00 | 0.00 | 43 | 1014.3 |
| 20260506182804 | 53 | 291 | 8.0 | 16.0 | 0.00 | 0.00 | 0.00 | 41 | 1014.3 |
| 20260506182659 | 53 | 298 | 8.0 | 16.0 | 0.00 | 0.00 | 0.00 | 42 | 1014.2 |
| 20260506182609 | 53 | 316 | 9.0 | 16.0 | 0.00 | 0.00 | 0.00 | 40 | 1014.2 |
| 20260506182521 | 53 | 304 | 8.0 | 16.0 | 0.00 | 0.00 | 0.00 | 43 | 1014.2 |
| 20260506182411 | 54 | 299 | 8.0 | 16.0 | 0.00 | 0.00 | 0.00 | 43 | 1014.2 |
| 20260506182306 | 54 | 300 | 8.0 | 16.0 | 0.00 | 0.00 | 0.00 | 44 | 1014.3 |
| 20260506182215 | 54 | 273 | 8.0 | 16.0 | 0.00 | 0.00 | 0.00 | 45 | 1014.2 |
| 20260506182125 | 54 | 282 | 8.0 | 16.0 | 0.00 | 0.00 | 0.00 | 45 | 1014.2 |
| 20260506182037 | 54 | 242 | 6.0 | 12.0 | 0.00 | 0.00 | 0.00 | 45 | 1014.1 |
| 20260506181907 | 54 | 202 | 5.0 | 11.0 | 0.00 | 0.00 | 0.00 | 45 | 1014.3 |
| 20260506181819 | 54 | 253 | 3.0 | 11.0 | 0.00 | 0.00 | 0.00 | 42 | 1014.3 |
| 20260506181733 | 54 | 254 | 4.0 | 11.0 | 0.00 | 0.00 | 0.00 | 47 | 1014.3 |
| 20260506181603 | 53 | 306 | 5.0 | 11.0 | 0.00 | 0.00 | 0.00 | 47 | 1014.3 |
| 20260506181524 | 53 | 277 | 4.0 | 11.0 | 0.00 | 0.00 | 0.00 | 46 | 1014.3 |
| 20260506181413 | 53 | 269 | 4.0 | 9.0 | 0.00 | 0.00 | 0.00 | 45 | 1014.2 |
| 20260506181324 | 53 | 304 | 4.0 | 9.0 | 0.00 | 0.00 | 0.00 | 51 | 1014.3 |
| 20260506181236 | 53 | 236 | 4.0 | 9.0 | 0.00 | 0.00 | 0.00 | 45 | 1014.3 |
| 20260506181106 | 53 | 9 | 3.0 | 9.0 | 0.00 | 0.00 | 0.00 | 48 | 1014.3 |
| 20260506180958 | 53 | 360 | 3.0 | 11.0 | 0.00 | 0.00 | 0.00 | 47 | 1014.3 |
| 20260506180908 | 53 | 255 | 4.0 | 14.0 | 0.00 | 0.00 | 0.00 | 44 | 1014.2 |
| 20260506180803 | 53 | 289 | 5.0 | 15.0 | 0.00 | 0.00 | 0.00 | 47 | 1014.2 |
| 20260506180714 | 53 | 271 | 5.0 | 15.0 | 0.00 | 0.00 | 0.00 | 47 | 1014.2 |
| 20260506180604 | 53 | 282 | 4.0 | 15.0 | 0.00 | 0.00 | 0.00 | 45 | 1014.2 |
| 20260506180515 | 53 | 219 | 3.0 | 15.0 | 0.00 | 0.00 | 0.00 | 46 | 1014.3 |
| 20260506180425 | 53 | 283 | 4.0 | 15.0 | 0.00 | 0.00 | 0.00 | 44 | 1014.3 |
| 20260506180317 | 53 | 259 | 6.0 | 15.0 | 0.00 | 0.00 | 0.00 | 46 | 1014.3 |
| 20260506180225 | 53 | 248 | 7.0 | 15.0 | 0.00 | 0.00 | 0.00 | 42 | 1014.4 |
| 20260506180136 | 53 | 302 | 9.0 | 15.0 | 0.00 | 0.00 | 0.00 | 43 | 1014.4 |
| 20260506180036 | 53 | 277 | 8.0 | 15.0 | 0.00 | 0.00 | 0.00 | 44 | 1014.3 |
| 20260506175905 | 53 | 274 | 3.0 | 13.0 | 0.00 | 0.00 | 0.00 | 49 | 1014.3 |
| 20260506175817 | 53 | 296 | 3.0 | 13.0 | 0.00 | 0.00 | 0.00 | 47 | 1014.4 |
| 20260506175732 | 52 | 304 | 4.0 | 13.0 | 0.00 | 0.00 | 0.00 | 48 | 1014.4 |
| 20260506175601 | 52 | 305 | 6.0 | 13.0 | 0.00 | 0.00 | 0.00 | 45 | 1014.4 |
| 20260506175511 | 52 | 280 | 6.0 | 13.0 | 0.00 | 0.00 | 0.00 | 43 | 1014.5 |
| 20260506175403 | 53 | 5 | 7.0 | 16.0 | 0.00 | 0.00 | 0.00 | 44 | 1014.4 |
| 20260506175314 | 53 | 335 | 7.0 | 16.0 | 0.00 | 0.00 | 0.00 | 45 | 1014.5 |
| 20260506175204 | 53 | 344 | 8.0 | 16.0 | 0.00 | 0.00 | 0.00 | 45 | 1014.5 |
| 20260506175116 | 53 | 328 | 6.0 | 16.0 | 0.00 | 0.00 | 0.00 | 42 | 1014.5 |
| 20260506175027 | 53 | 312 | 4.0 | 16.0 | 0.00 | 0.00 | 0.00 | 42 | 1014.4 |
| 20260506174917 | 53 | 284 | 4.0 | 16.0 | 0.00 | 0.00 | 0.00 | 42 | 1014.5 |
| 20260506174811 | 53 | 291 | 7.0 | 16.0 | 0.00 | 0.00 | 0.00 | 42 | 1014.4 |
| 20260506174703 | 54 | 296 | 8.0 | 16.0 | 0.00 | 0.00 | 0.00 | 43 | 1014.5 |
| 20260506174613 | 54 | 288 | 6.0 | 16.0 | 0.00 | 0.00 | 0.00 | 51 | 1014.4 |
| 20260506174535 | 54 | 287 | 4.0 | 11.0 | 0.00 | 0.00 | 0.00 | 48 | 1014.4 |
| 20260506174424 | 53 | 275 | 4.0 | 11.0 | 0.00 | 0.00 | 0.00 | 51 | 1014.2 |
| 20260506174335 | 53 | 326 | 5.0 | 11.0 | 0.00 | 0.00 | 0.00 | 51 | 1014.4 |
| 20260506174204 | 53 | 250 | 8.0 | 11.0 | 0.00 | 0.00 | 0.00 | 48 | 1014.3 |
| 20260506174114 | 53 | 308 | 6.0 | 15.0 | 0.00 | 0.00 | 0.00 | 47 | 1014.2 |
| 20260506174005 | 53 | 291 | 5.0 | 15.0 | 0.00 | 0.00 | 0.00 | 49 | 1014.3 |
| 20260506173900 | 53 | 324 | 5.0 | 15.0 | 0.00 | 0.00 | 0.00 | 48 | 1014.3 |
| 20260506173810 | 53 | 318 | 3.0 | 15.0 | 0.00 | 0.00 | 0.00 | 48 | 1014.2 |
| 20260506173701 | 53 | 252 | 3.0 | 15.0 | 0.00 | 0.00 | 0.00 | 47 | 1014.2 |
| 20260506173611 | 53 | 294 | 4.0 | 15.0 | 0.00 | 0.00 | 0.00 | 49 | 1014.2 |
| 20260506173502 | 53 | 277 | 4.0 | 15.0 | 0.00 | 0.00 | 0.00 | 49 | 1014.2 |
| 20260506173413 | 52 | 267 | 7.0 | 15.0 | 0.00 | 0.00 | 0.00 | 46 | 1014.2 |
| 20260506173304 | 53 | 296 | 8.0 | 15.0 | 0.00 | 0.00 | 0.00 | 44 | 1014.2 |
| 20260506173212 | 53 | 296 | 5.0 | 12.0 | 0.00 | 0.00 | 0.00 | 46 | 1014.2 |
| 20260506173122 | 52 | 288 | 5.0 | 14.0 | 0.00 | 0.00 | 0.00 | 46 | 1014.2 |
| 20260506173044 | 52 | 257 | 4.0 | 14.0 | 0.00 | 0.00 | 0.00 | 50 | 1014.1 |
| 20260506172916 | 52 | 261 | 3.0 | 14.0 | 0.00 | 0.00 | 0.00 | 51 | 1014.2 |
| 20260506172808 | 52 | 289 | 5.0 | 14.0 | 0.00 | 0.00 | 0.00 | 47 | 1014.2 |
| 20260506172658 | 52 | 283 | 6.0 | 14.0 | 0.00 | 0.00 | 0.00 | 46 | 1014.1 |
| 20260506172608 | 52 | 307 | 8.0 | 14.0 | 0.00 | 0.00 | 0.00 | 43 | 1014.1 |
| 20260506172520 | 52 | 317 | 9.0 | 14.0 | 0.00 | 0.00 | 0.00 | 46 | 1014.2 |
| 20260506172409 | 52 | 316 | 8.0 | 14.0 | 0.00 | 0.00 | 0.00 | 44 | 1014.1 |
| 20260506172319 | 52 | 317 | 8.0 | 14.0 | 0.00 | 0.00 | 0.00 | 47 | 1014.1 |
| 20260506172231 | 52 | 307 | 5.0 | 10.0 | 0.00 | 0.00 | 0.00 | 50 | 1014.1 |
| 20260506172101 | 52 | 242 | 4.0 | 9.0 | 0.00 | 0.00 | 0.00 | 50 | 1014.2 |
| 20260506172011 | 52 | 284 | 3.0 | 7.0 | 0.00 | 0.00 | 0.00 | 48 | 1014.1 |
| 20260506171906 | 52 | 265 | 3.0 | 7.0 | 0.00 | 0.00 | 0.00 | 49 | 1014.1 |
| 20260506171817 | 52 | 250 | 3.0 | 6.0 | 0.00 | 0.00 | 0.00 | 47 | 1014.1 |
| 20260506171708 | 52 | 282 | 3.0 | 8.0 | 0.00 | 0.00 | 0.00 | 48 | 1014.2 |
| 20260506171558 | 52 | 295 | 3.0 | 8.0 | 0.00 | 0.00 | 0.00 | 48 | 1014.2 |
| 20260506171521 | 52 | 322 | 3.0 | 8.0 | 0.00 | 0.00 | 0.00 | 47 | 1014.1 |
| 20260506171409 | 52 | 329 | 4.0 | 10.0 | 0.00 | 0.00 | 0.00 | 47 | 1014.2 |
| 20260506171320 | 52 | 329 | 4.0 | 10.0 | 0.00 | 0.00 | 0.00 | 47 | 1014.1 |
| 20260506171230 | 52 | 273 | 3.0 | 10.0 | 0.00 | 0.00 | 0.00 | 48 | 1014.2 |
| 20260506171141 | 51 | 253 | 3.0 | 10.0 | 0.00 | 0.00 | 0.00 | 49 | 1014.2 |
| 20260506171030 | 51 | 272 | 3.0 | 10.0 | 0.00 | 0.00 | 0.00 | 49 | 1014.2 |
| 20260506170924 | 51 | 274 | 3.0 | 10.0 | 0.00 | 0.00 | 0.00 | 49 | 1014.3 |
| 20260506170813 | 51 | 294 | 3.0 | 10.0 | 0.00 | 0.00 | 0.00 | 49 | 1014.2 |
| 20260506170704 | 51 | 297 | 5.0 | 10.0 | 0.00 | 0.00 | 0.00 | 45 | 1014.2 |
| 20260506170615 | 51 | 286 | 5.0 | 12.0 | 0.00 | 0.00 | 0.00 | 47 | 1014.3 |
| 20260506170506 | 51 | 288 | 5.0 | 12.0 | 0.00 | 0.00 | 0.00 | 47 | 1014.2 |
| 20260506170358 | 51 | 309 | 4.0 | 12.0 | 0.00 | 0.00 | 0.00 | 46 | 1014.2 |
| 20260506170311 | 51 | 300 | 4.0 | 12.0 | 0.00 | 0.00 | 0.00 | 45 | 1014.1 |
| 20260506170220 | 51 | 319 | 4.0 | 12.0 | 0.00 | 0.00 | 0.00 | 44 | 1014.1 |
| 20260506170111 | 51 | 321 | 4.0 | 12.0 | 0.00 | 0.00 | 0.00 | 44 | 1014.2 |
| 20260506170034 | 51 | 312 | 5.0 | 12.0 | 0.00 | 0.00 | 0.00 | 44 | 1014.2 |
| 20260506165907 | 51 | 284 | 7.0 | 13.0 | 0.00 | 0.00 | 0.00 | 45 | 1014.2 |
| 20260506165819 | 51 | 318 | 9.0 | 13.0 | 0.00 | 0.00 | 0.00 | 45 | 1014.2 |
| 20260506165708 | 52 | 325 | 8.0 | 13.0 | 0.00 | 0.00 | 0.00 | 46 | 1014.2 |
| 20260506165559 | 52 | 294 | 8.0 | 13.0 | 0.00 | 0.00 | 0.00 | 45 | 1014.1 |
| 20260506165511 | 52 | 301 | 6.0 | 13.0 | 0.00 | 0.00 | 0.00 | 46 | 1014.2 |
| 20260506165404 | 52 | 320 | 4.0 | 13.0 | 0.00 | 0.00 | 0.00 | 45 | 1014.2 |
| 20260506165315 | 52 | 306 | 7.0 | 13.0 | 0.00 | 0.00 | 0.00 | 45 | 1014.2 |
| 20260506165205 | 52 | 292 | 9.0 | 13.0 | 0.00 | 0.00 | 0.00 | 44 | 1014.3 |
| 20260506165059 | 52 | 313 | 8.0 | 12.0 | 0.00 | 0.00 | 0.00 | 44 | 1014.2 |
| 20260506165009 | 52 | 302 | 8.0 | 11.0 | 0.00 | 0.00 | 0.00 | 46 | 1014.3 |
| 20260506164859 | 52 | 294 | 7.0 | 11.0 | 0.00 | 0.00 | 0.00 | 45 | 1014.3 |
| 20260506164810 | 52 | 302 | 6.0 | 11.0 | 0.00 | 0.00 | 0.00 | 45 | 1014.2 |
| 20260506164720 | 52 | 293 | 6.0 | 11.0 | 0.00 | 0.00 | 0.00 | 46 | 1014.3 |
| 20260506164611 | 52 | 276 | 7.0 | 11.0 | 0.00 | 0.00 | 0.00 | 46 | 1014.3 |
| 20260506164533 | 52 | 272 | 6.0 | 11.0 | 0.00 | 0.00 | 0.00 | 50 | 1014.3 |
| 20260506164403 | 52 | 286 | 4.0 | 11.0 | 0.00 | 0.00 | 0.00 | 48 | 1014.2 |
| 20260506164313 | 52 | 263 | 4.0 | 11.0 | 0.00 | 0.00 | 0.00 | 52 | 1014.1 |
| 20260506164206 | 52 | 300 | 4.0 | 11.0 | 0.00 | 0.00 | 0.00 | 49 | 1014.2 |
| 20260506164120 | 51 | 348 | 5.0 | 11.0 | 0.00 | 0.00 | 0.00 | 46 | 1014.2 |
| 20260506164009 | 51 | 324 | 5.0 | 11.0 | 0.00 | 0.00 | 0.00 | 50 | 1014.1 |
| 20260506163919 | 51 | 350 | 5.0 | 11.0 | 0.00 | 0.00 | 0.00 | 48 | 1014.2 |
| 20260506163829 | 51 | 327 | 6.0 | 11.0 | 0.00 | 0.00 | 0.00 | 46 | 1014.2 |
| 20260506163658 | 51 | 28 | 5.0 | 11.0 | 0.00 | 0.00 | 0.00 | 46 | 1014.2 |
| 20260506163609 | 51 | 360 | 5.0 | 11.0 | 0.00 | 0.00 | 0.00 | 46 | 1014.2 |
| 20260506163500 | 51 | 15 | 4.0 | 14.0 | 0.00 | 0.00 | 0.00 | 46 | 1014.1 |
| 20260506163411 | 51 | 349 | 4.0 | 14.0 | 0.00 | 0.00 | 0.00 | 47 | 1014.1 |
| 20260506163303 | 52 | 302 | 6.0 | 14.0 | 0.00 | 0.00 | 0.00 | 45 | 1014.1 |
| 20260506163212 | 52 | 316 | 8.0 | 14.0 | 0.00 | 0.00 | 0.00 | 45 | 1014.3 |
| 20260506163106 | 52 | 311 | 8.0 | 14.0 | 0.00 | 0.00 | 0.00 | 46 | 1014.2 |
| 20260506163029 | 52 | 288 | 7.0 | 14.0 | 0.00 | 0.00 | 0.00 | 49 | 1014.2 |
| 20260506162858 | 52 | 338 | 6.0 | 14.0 | 0.00 | 0.00 | 0.00 | 48 | 1014.3 |
| 20260506162811 | 52 | 313 | 7.0 | 14.0 | 0.00 | 0.00 | 0.00 | 50 | 1014.3 |
| 20260506162701 | 52 | 339 | 7.0 | 14.0 | 0.00 | 0.00 | 0.00 | 47 | 1014.2 |
| 20260506162612 | 52 | 22 | 5.0 | 10.0 | 0.00 | 0.00 | 0.00 | 45 | 1014.2 |
| 20260506162504 | 52 | 11 | 5.0 | 9.0 | 0.00 | 0.00 | 0.00 | 47 | 1014.3 |
| 20260506162414 | 52 | 336 | 4.0 | 10.0 | 0.00 | 0.00 | 0.00 | 48 | 1014.3 |
| 20260506162325 | 52 | 298 | 2.0 | 10.0 | 0.00 | 0.00 | 0.00 | 51 | 1014.2 |
| 20260506162220 | 52 | 270 | 2.0 | 10.0 | 0.00 | 0.00 | 0.00 | 49 | 1014.3 |
| 20260506162130 | 52 | 334 | 2.0 | 10.0 | 0.00 | 0.00 | 0.00 | 45 | 1014.3 |
| 20260506162041 | 52 | 329 | 5.0 | 10.0 | 0.00 | 0.00 | 0.00 | 45 | 1014.2 |
| 20260506161930 | 52 | 326 | 3.0 | 10.0 | 0.00 | 0.00 | 0.00 | 48 | 1014.2 |
| 20260506161758 | 52 | 279 | 3.0 | 10.0 | 0.00 | 0.00 | 0.00 | 49 | 1014.2 |
| 20260506161710 | 52 | 252 | 5.0 | 10.0 | 0.00 | 0.00 | 0.00 | 47 | 1014.3 |
| 20260506161559 | 52 | 251 | 4.0 | 10.0 | 0.00 | 0.00 | 0.00 | 51 | 1014.3 |
| 20260506161521 | 52 | 246 | 4.0 | 10.0 | 0.00 | 0.00 | 0.00 | 51 | 1014.2 |
| 20260506161411 | 52 | 286 | 5.0 | 10.0 | 0.00 | 0.00 | 0.00 | 49 | 1014.2 |
| 20260506161322 | 52 | 258 | 6.0 | 10.0 | 0.00 | 0.00 | 0.00 | 50 | 1014.2 |
| 20260506161232 | 52 | 313 | 5.0 | 10.0 | 0.00 | 0.00 | 0.00 | 48 | 1014.2 |
| 20260506161105 | 52 | 262 | 3.0 | 6.0 | 0.00 | 0.00 | 0.00 | 47 | 1014.2 |
| 20260506161017 | 51 | 215 | 2.0 | 8.0 | 0.00 | 0.00 | 0.00 | 48 | 1014.2 |
| 20260506160907 | 51 | 302 | 1.0 | 8.0 | 0.00 | 0.00 | 0.00 | 48 | 1014.2 |
| 20260506160818 | 51 | 302 | 1.0 | 8.0 | 0.00 | 0.00 | 0.00 | 49 | 1014.2 |
| 20260506160730 | 51 | 292 | 2.0 | 8.0 | 0.00 | 0.00 | 0.00 | 47 | 1014.3 |
| 20260506160620 | 51 | 319 | 3.0 | 10.0 | 0.00 | 0.00 | 0.00 | 47 | 1014.4 |
| 20260506160530 | 51 | 340 | 4.0 | 10.0 | 0.00 | 0.00 | 0.00 | 47 | 1014.3 |
| 20260506160420 | 52 | 335 | 5.0 | 10.0 | 0.00 | 0.00 | 0.00 | 47 | 1014.4 |
| 20260506160312 | 52 | 325 | 4.0 | 10.0 | 0.00 | 0.00 | 0.00 | 49 | 1014.3 |
| 20260506160220 | 52 | 37 | 4.0 | 10.0 | 0.00 | 0.00 | 0.00 | 50 | 1014.3 |
| 20260506160132 | 52 | 360 | 3.0 | 10.0 | 0.00 | 0.00 | 0.00 | 49 | 1014.3 |
| 20260506160036 | 52 | 355 | 3.0 | 10.0 | 0.00 | 0.00 | 0.00 | 47 | 1014.3 |
| 20260506155906 | 52 | 21 | 6.0 | 10.0 | 0.00 | 0.00 | 0.00 | 48 | 1014.4 |
| 20260506155816 | 52 | 10 | 6.0 | 10.0 | 0.00 | 0.00 | 0.00 | 51 | 1014.3 |
| 20260506155708 | 52 | 355 | 4.0 | 10.0 | 0.00 | 0.00 | 0.00 | 51 | 1014.4 |
| 20260506155558 | 52 | 329 | 3.0 | 8.0 | 0.00 | 0.00 | 0.00 | 51 | 1014.4 |
| 20260506155510 | 52 | 323 | 3.0 | 8.0 | 0.00 | 0.00 | 0.00 | 48 | 1014.4 |
| 20260506155401 | 52 | 288 | 4.0 | 8.0 | 0.00 | 0.00 | 0.00 | 48 | 1014.2 |
| 20260506155312 | 52 | 296 | 4.0 | 8.0 | 0.00 | 0.00 | 0.00 | 50 | 1014.4 |
| 20260506155222 | 51 | 318 | 3.0 | 8.0 | 0.00 | 0.00 | 0.00 | 51 | 1014.3 |
| 20260506155136 | 51 | 232 | 2.0 | 6.0 | 0.00 | 0.00 | 0.00 | 47 | 1014.3 |
| 20260506155004 | 51 | 226 | 3.0 | 6.0 | 0.00 | 0.00 | 0.00 | 48 | 1014.4 |
| 20260506154916 | 51 | 264 | 3.0 | 6.0 | 0.00 | 0.00 | 0.00 | 50 | 1014.3 |
| 20260506154807 | 51 | 246 | 2.0 | 6.0 | 0.00 | 0.00 | 0.00 | 49 | 1014.3 |
| 20260506154716 | 51 | 242 | 2.0 | 6.0 | 0.00 | 0.00 | 0.00 | 50 | 1014.3 |
| 20260506154608 | 51 | 270 | 4.0 | 8.0 | 0.00 | 0.00 | 0.00 | 53 | 1014.3 |
| 20260506154530 | 51 | 291 | 4.0 | 8.0 | 0.00 | 0.00 | 0.00 | 53 | 1014.3 |
| 20260506154419 | 51 | 319 | 0.0 | 9.0 | 0.00 | 0.00 | 0.00 | 46 | 1014.3 |
| 20260506154310 | 51 | 289 | 2.0 | 9.0 | 0.00 | 0.00 | 0.00 | 46 | 1014.3 |
| 20260506154220 | 51 | 289 | 3.0 | 9.0 | 0.00 | 0.00 | 0.00 | 47 | 1014.3 |
| 20260506154113 | 51 | 288 | 3.0 | 10.0 | 0.00 | 0.00 | 0.00 | 49 | 1014.3 |
| 20260506154005 | 51 | 323 | 4.0 | 10.0 | 0.00 | 0.00 | 0.00 | 49 | 1014.4 |
| 20260506153916 | 51 | 301 | 5.0 | 10.0 | 0.00 | 0.00 | 0.00 | 48 | 1014.3 |
| 20260506153807 | 51 | 319 | 6.0 | 10.0 | 0.00 | 0.00 | 0.00 | 48 | 1014.4 |
| 20260506153659 | 51 | 304 | 5.0 | 10.0 | 0.00 | 0.00 | 0.00 | 48 | 1014.4 |
| 20260506153609 | 51 | 290 | 5.0 | 11.0 | 0.00 | 0.00 | 0.00 | 48 | 1014.3 |
| 20260506153520 | 51 | 287 | 4.0 | 11.0 | 0.00 | 0.00 | 0.00 | 47 | 1014.3 |
| 20260506153410 | 51 | 298 | 6.0 | 11.0 | 0.00 | 0.00 | 0.00 | 48 | 1014.3 |
| 20260506153302 | 51 | 298 | 7.0 | 11.0 | 0.00 | 0.00 | 0.00 | 47 | 1014.3 |
| 20260506153215 | 51 | 279 | 5.0 | 11.0 | 0.00 | 0.00 | 0.00 | 47 | 1014.3 |
| 20260506153127 | 51 | 296 | 4.0 | 11.0 | 0.00 | 0.00 | 0.00 | 46 | 1014.3 |
| 20260506153047 | 51 | 294 | 4.0 | 11.0 | 0.00 | 0.00 | 0.00 | 47 | 1014.2 |
| 20260506152915 | 51 | 286 | 5.0 | 11.0 | 0.00 | 0.00 | 0.00 | 47 | 1014.3 |
| 20260506152806 | 51 | 269 | 4.0 | 11.0 | 0.00 | 0.00 | 0.00 | 49 | 1014.3 |
| 20260506152717 | 51 | 306 | 3.0 | 8.0 | 0.00 | 0.00 | 0.00 | 49 | 1014.3 |
| 20260506152609 | 51 | 338 | 4.0 | 8.0 | 0.00 | 0.00 | 0.00 | 50 | 1014.2 |
| 20260506152519 | 51 | 5 | 4.0 | 8.0 | 0.00 | 0.00 | 0.00 | 49 | 1014.2 |
| 20260506152431 | 51 | 325 | 3.0 | 8.0 | 0.00 | 0.00 | 0.00 | 50 | 1014.2 |
| 20260506152300 | 51 | 318 | 2.0 | 5.0 | 0.00 | 0.00 | 0.00 | 49 | 1014.2 |
| 20260506152214 | 51 | 30 | 3.0 | 5.0 | 0.00 | 0.00 | 0.00 | 48 | 1014.1 |
| 20260506152106 | 51 | 13 | 4.0 | 8.0 | 0.00 | 0.00 | 0.00 | 48 | 1014.1 |
| 20260506152017 | 51 | 23 | 3.0 | 8.0 | 0.00 | 0.00 | 0.00 | 50 | 1014.1 |
| 20260506151907 | 51 | 321 | 3.0 | 8.0 | 0.00 | 0.00 | 0.00 | 50 | 1014.1 |
| 20260506151759 | 51 | 286 | 3.0 | 8.0 | 0.00 | 0.00 | 0.00 | 52 | 1014.0 |
| 20260506151710 | 51 | 333 | 3.0 | 8.0 | 0.00 | 0.00 | 0.00 | 52 | 1014.1 |
| 20260506151602 | 51 | 19 | 3.0 | 8.0 | 0.00 | 0.00 | 0.00 | 49 | 1014.0 |
| 20260506151523 | 51 | 5 | 4.0 | 8.0 | 0.00 | 0.00 | 0.00 | 52 | 1014.0 |
| 20260506151413 | 51 | 313 | 5.0 | 8.0 | 0.00 | 0.00 | 0.00 | 48 | 1013.9 |
| 20260506151327 | 51 | 295 | 5.0 | 8.0 | 0.00 | 0.00 | 0.00 | 51 | 1014.0 |
| 20260506151218 | 50 | 295 | 3.0 | 8.0 | 0.00 | 0.00 | 0.00 | 53 | 1014.0 |
| 20260506151129 | 50 | 309 | 2.0 | 4.0 | 0.00 | 0.00 | 0.00 | 50 | 1014.1 |
| 20260506151019 | 50 | 355 | 2.0 | 6.0 | 0.00 | 0.00 | 0.00 | 50 | 1014.1 |
| 20260506150929 | 50 | 56 | 2.0 | 6.0 | 0.00 | 0.00 | 0.00 | 49 | 1014.1 |
| 20260506150819 | 50 | 44 | 2.0 | 6.0 | 0.00 | 0.00 | 0.00 | 52 | 1014.1 |
| 20260506150729 | 50 | 317 | 1.0 | 6.0 | 0.00 | 0.00 | 0.00 | 50 | 1014.0 |
| 20260506150639 | 50 | 317 | 2.0 | 6.0 | 0.00 | 0.00 | 0.00 | 48 | 1014.0 |
| 20260506150508 | 50 | 317 | 3.0 | 6.0 | 0.00 | 0.00 | 0.00 | 50 | 1014.0 |
| 20260506150419 | 50 | 323 | 3.0 | 6.0 | 0.00 | 0.00 | 0.00 | 50 | 1014.1 |
| 20260506150333 | 50 | 340 | 4.0 | 6.0 | 0.00 | 0.00 | 0.00 | 49 | 1014.1 |
| 20260506150220 | 50 | 348 | 3.0 | 6.0 | 0.00 | 0.03 | 0.00 | 50 | 1014.0 |
| 20260506150134 | 50 | 307 | 3.0 | 5.0 | 0.00 | 0.03 | 0.00 | 52 | 1014.0 |
| 20260506150036 | 50 | 338 | 3.0 | 5.0 | 0.00 | 0.03 | 0.00 | 50 | 1014.1 |
| 20260506145905 | 50 | 46 | 2.0 | 5.0 | 0.00 | 0.03 | 0.00 | 50 | 1014.0 |
| 20260506145817 | 50 | 32 | 2.0 | 5.0 | 0.00 | 0.03 | 0.00 | 48 | 1014.1 |
| 20260506145707 | 50 | 355 | 2.0 | 5.0 | 0.00 | 0.03 | 0.00 | 50 | 1014.2 |
| 20260506145558 | 50 | 13 | 2.0 | 5.0 | 0.00 | 0.03 | 0.00 | 48 | 1014.1 |
| 20260506145509 | 50 | 331 | 3.0 | 5.0 | 0.00 | 0.03 | 0.00 | 47 | 1014.2 |
| 20260506145420 | 50 | 350 | 2.0 | 5.0 | 0.00 | 0.03 | 0.00 | 49 | 1014.2 |
| 20260506145308 | 50 | 26 | 3.0 | 5.0 | 0.00 | 0.03 | 0.00 | 49 | 1014.2 |
| 20260506145202 | 50 | 350 | 4.0 | 5.0 | 0.00 | 0.03 | 0.00 | 48 | 1014.2 |
| 20260506145114 | 50 | 329 | 4.0 | 5.0 | 0.00 | 0.03 | 0.00 | 49 | 1014.2 |
| 20260506145005 | 50 | 360 | 3.0 | 5.0 | 0.00 | 0.03 | 0.00 | 48 | 1014.1 |
| 20260506144916 | 50 | 5 | 3.0 | 5.0 | 0.00 | 0.03 | 0.00 | 47 | 1014.1 |
| 20260506144807 | 50 | 30 | 3.0 | 4.0 | 0.00 | 0.03 | 0.00 | 47 | 1014.2 |
| 20260506144658 | 50 | 348 | 1.0 | 6.0 | 0.00 | 0.03 | 0.00 | 50 | 1014.1 |
| 20260506144608 | 50 | 52 | 2.0 | 6.0 | 0.00 | 0.03 | 0.00 | 48 | 1014.1 |
| 20260506144530 | 50 | 277 | 3.0 | 6.0 | 0.00 | 0.03 | 0.00 | 46 | 1014.1 |
| 20260506144401 | 50 | 290 | 2.0 | 6.0 | 0.00 | 0.03 | 0.00 | 46 | 1014.1 |
| 20260506144316 | 50 | 20 | 2.0 | 6.0 | 0.00 | 0.03 | 0.00 | 47 | 1014.0 |
| 20260506144208 | 50 | 20 | 2.0 | 6.0 | 0.00 | 0.03 | 0.00 | 48 | 1014.0 |
| 20260506144119 | 50 | 20 | 3.0 | 6.0 | 0.00 | 0.03 | 0.00 | 48 | 1014.1 |
| 20260506144010 | 50 | 20 | 3.0 | 6.0 | 0.00 | 0.03 | 0.00 | 48 | 1014.0 |
| 20260506143920 | 50 | 360 | 2.0 | 7.0 | 0.00 | 0.03 | 0.00 | 52 | 1014.1 |
| 20260506143831 | 49 | 360 | 1.0 | 4.0 | 0.00 | 0.03 | 0.00 | 48 | 1014.1 |
| 20260506143742 | 49 | 5 | 2.0 | 4.0 | 0.00 | 0.03 | 0.00 | 48 | 1014.1 |
| 20260506143633 | 49 | 5 | 3.0 | 4.0 | 0.00 | 0.03 | 0.00 | 49 | 1014.1 |
| 20260506143521 | 49 | 5 | 2.0 | 4.0 | 0.00 | 0.03 | 0.00 | 49 | 1014.0 |
| 20260506143433 | 49 | 23 | 2.0 | 6.0 | 0.00 | 0.03 | 0.00 | 47 | 1014.0 |
| 20260506143323 | 49 | 23 | 3.0 | 6.0 | 0.00 | 0.03 | 0.00 | 47 | 1014.0 |
| 20260506143210 | 49 | 17 | 3.0 | 6.0 | 0.00 | 0.03 | 0.00 | 47 | 1013.9 |
| 20260506143106 | 49 | 360 | 3.0 | 6.0 | 0.00 | 0.03 | 0.00 | 48 | 1013.9 |
| 20260506143028 | 49 | 350 | 3.0 | 6.0 | 0.00 | 0.03 | 0.00 | 49 | 1013.9 |
| 20260506142919 | 49 | 360 | 3.0 | 6.0 | 0.00 | 0.03 | 0.00 | 47 | 1014.0 |
| 20260506142808 | 49 | 360 | 4.0 | 6.0 | 0.00 | 0.03 | 0.00 | 48 | 1014.0 |
| 20260506142658 | 49 | 347 | 4.0 | 6.0 | 0.00 | 0.03 | 0.00 | 46 | 1014.0 |
| 20260506142609 | 49 | 336 | 4.0 | 6.0 | 0.00 | 0.03 | 0.00 | 49 | 1013.9 |
| 20260506142501 | 49 | 339 | 2.0 | 4.0 | 0.00 | 0.03 | 0.00 | 49 | 1013.9 |
| 20260506142411 | 49 | 355 | 2.0 | 4.0 | 0.00 | 0.03 | 0.00 | 48 | 1013.9 |
| 20260506142301 | 49 | 22 | 2.0 | 4.0 | 0.00 | 0.03 | 0.00 | 50 | 1013.9 |
| 20260506142217 | 49 | 12 | 2.0 | 4.0 | 0.00 | 0.03 | 0.00 | 49 | 1013.9 |
| 20260506142107 | 49 | 350 | 2.0 | 4.0 | 0.00 | 0.03 | 0.00 | 47 | 1013.8 |
| 20260506141958 | 49 | 323 | 1.0 | 5.0 | 0.00 | 0.03 | 0.00 | 47 | 1013.8 |
| 20260506141909 | 49 | 344 | 0.0 | 5.0 | 0.00 | 0.03 | 0.00 | 50 | 1013.7 |
| 20260506141800 | 49 | 344 | 0.0 | 5.0 | 0.00 | 0.03 | 0.00 | 48 | 1013.8 |
| 20260506141713 | 49 | 344 | 0.0 | 5.0 | 0.00 | 0.03 | 0.00 | 48 | 1013.7 |
| 20260506141605 | 49 | 344 | 1.0 | 5.0 | 0.00 | 0.03 | 0.00 | 48 | 1013.6 |
| 20260506141527 | 49 | 344 | 1.0 | 5.0 | 0.00 | 0.03 | 0.00 | 47 | 1013.7 |
| 20260506141400 | 49 | 344 | 2.0 | 5.0 | 0.00 | 0.03 | 0.00 | 47 | 1013.6 |
| 20260506141312 | 50 | 344 | 3.0 | 5.0 | 0.00 | 0.03 | 0.00 | 49 | 1013.6 |
| 20260506141201 | 50 | 344 | 3.0 | 5.0 | 0.00 | 0.03 | 0.00 | 50 | 1013.7 |
| 20260506141112 | 50 | 40 | 2.0 | 5.0 | 0.00 | 0.03 | 0.00 | 51 | 1013.6 |
| 20260506141002 | 50 | 42 | 2.0 | 5.0 | 0.00 | 0.03 | 0.00 | 52 | 1013.5 |
| 20260506140914 | 50 | 41 | 3.0 | 5.0 | 0.00 | 0.03 | 0.00 | 49 | 1013.5 |
| 20260506140803 | 50 | 77 | 3.0 | 6.0 | 0.00 | 0.03 | 0.00 | 52 | 1013.6 |
| 20260506140714 | 50 | 53 | 3.0 | 6.0 | 0.00 | 0.03 | 0.00 | 50 | 1013.6 |
| 20260506140606 | 49 | 49 | 3.0 | 6.0 | 0.00 | 0.03 | 0.00 | 52 | 1013.6 |
| 20260506140520 | 50 | 78 | 2.0 | 6.0 | 0.00 | 0.03 | 0.00 | 53 | 1013.6 |
| 20260506140411 | 49 | 56 | 2.0 | 6.0 | 0.00 | 0.03 | 0.00 | 52 | 1013.5 |
| 20260506140303 | 49 | 69 | 3.0 | 6.0 | 0.00 | 0.03 | 0.00 | 50 | 1013.5 |
| 20260506140211 | 49 | 49 | 3.0 | 6.0 | 0.00 | 0.09 | 0.00 | 50 | 1013.6 |
| 20260506140025 | 49 | 57 | 4.0 | 6.0 | 0.00 | 0.09 | 0.00 | 49 | 1013.5 |
| 20260506135915 | 49 | 53 | 4.0 | 6.0 | 0.00 | 0.09 | 0.00 | 50 | 1013.5 |
| 20260506135825 | 49 | 49 | 3.0 | 6.0 | 0.00 | 0.09 | 0.00 | 50 | 1013.4 |
| 20260506135737 | 49 | 77 | 2.0 | 5.0 | 0.00 | 0.09 | 0.00 | 52 | 1013.5 |
| 20260506135606 | 49 | 61 | 3.0 | 5.0 | 0.00 | 0.09 | 0.00 | 51 | 1013.5 |
| 20260506135501 | 49 | 59 | 3.0 | 5.0 | 0.00 | 0.09 | 0.00 | 50 | 1013.4 |
| 20260506135410 | 49 | 63 | 3.0 | 5.0 | 0.00 | 0.09 | 0.00 | 52 | 1013.4 |
| 20260506135320 | 49 | 83 | 3.0 | 5.0 | 0.00 | 0.09 | 0.00 | 52 | 1013.4 |
| 20260506135231 | 49 | 51 | 3.0 | 5.0 | 0.00 | 0.09 | 0.00 | 53 | 1013.5 |
| 20260506135101 | 49 | 53 | 2.0 | 5.0 | 0.00 | 0.09 | 0.00 | 55 | 1013.4 |
| 20260506135012 | 49 | 35 | 2.0 | 5.0 | 0.00 | 0.09 | 0.00 | 54 | 1013.5 |
| 20260506134923 | 49 | 36 | 3.0 | 5.0 | 0.00 | 0.09 | 0.00 | 51 | 1013.4 |
| 20260506134835 | 49 | 30 | 2.0 | 5.0 | 0.00 | 0.09 | 0.00 | 53 | 1013.4 |
| 20260506134705 | 48 | 24 | 1.0 | 5.0 | 0.00 | 0.09 | 0.00 | 54 | 1013.4 |
| 20260506134617 | 48 | 24 | 2.0 | 6.0 | 0.00 | 0.09 | 0.00 | 53 | 1013.3 |
| 20260506134543 | 48 | 24 | 3.0 | 6.0 | 0.00 | 0.09 | 0.00 | 51 | 1013.3 |
| 20260506134433 | 48 | 47 | 3.0 | 6.0 | 0.00 | 0.09 | 0.00 | 51 | 1013.4 |
| 20260506134344 | 48 | 30 | 4.0 | 8.0 | 0.00 | 0.09 | 0.00 | 51 | 1013.4 |
| 20260506134234 | 48 | 27 | 4.0 | 8.0 | 0.00 | 0.09 | 0.00 | 52 | 1013.4 |
| 20260506134104 | 48 | 355 | 4.0 | 8.0 | 0.00 | 0.09 | 0.00 | 51 | 1013.4 |
| 20260506134017 | 48 | 11 | 4.0 | 8.0 | 0.00 | 0.09 | 0.00 | 52 | 1013.3 |
| 20260506133926 | 48 | 25 | 4.0 | 8.0 | 0.00 | 0.09 | 0.00 | 52 | 1013.3 |
| 20260506133817 | 48 | 342 | 5.0 | 8.0 | 0.00 | 0.09 | 0.00 | 53 | 1013.3 |
| 20260506133707 | 48 | 29 | 5.0 | 8.0 | 0.00 | 0.09 | 0.00 | 53 | 1013.3 |
| 20260506133617 | 48 | 18 | 5.0 | 8.0 | 0.00 | 0.09 | 0.00 | 55 | 1013.3 |
| 20260506133511 | 48 | 348 | 3.0 | 8.0 | 0.00 | 0.09 | 0.00 | 55 | 1013.3 |
| 20260506133422 | 48 | 29 | 1.0 | 5.0 | 0.00 | 0.09 | 0.00 | 56 | 1013.3 |
| 20260506133334 | 48 | 23 | 2.0 | 5.0 | 0.00 | 0.09 | 0.00 | 56 | 1013.3 |
| 20260506133246 | 48 | 23 | 3.0 | 5.0 | 0.00 | 0.09 | 0.00 | 57 | 1013.3 |
| 20260506133155 | 48 | 360 | 3.0 | 5.0 | 0.00 | 0.09 | 0.00 | 57 | 1013.3 |
| 20260506133055 | 48 | 15 | 3.0 | 5.0 | 0.00 | 0.09 | 0.00 | 56 | 1013.2 |
| 20260506132903 | 48 | 25 | 3.0 | 5.0 | 0.00 | 0.09 | 0.00 | 55 | 1013.3 |
| 20260506132815 | 48 | 22 | 3.0 | 5.0 | 0.00 | 0.09 | 0.00 | 57 | 1013.3 |
| 20260506132725 | 48 | 19 | 3.0 | 5.0 | 0.00 | 0.09 | 0.00 | 58 | 1013.2 |
| 20260506132613 | 48 | 21 | 3.0 | 5.0 | 0.00 | 0.09 | 0.00 | 58 | 1013.3 |
| 20260506132505 | 48 | 18 | 3.0 | 5.0 | 0.00 | 0.09 | 0.00 | 56 | 1013.2 |
| 20260506132400 | 48 | 349 | 4.0 | 5.0 | 0.00 | 0.09 | 0.00 | 56 | 1013.2 |
| 20260506132313 | 48 | 20 | 4.0 | 5.0 | 0.00 | 0.09 | 0.00 | 57 | 1013.1 |
| 20260506132203 | 48 | 338 | 3.0 | 5.0 | 0.00 | 0.09 | 0.00 | 59 | 1013.2 |
| 20260506132115 | 48 | 340 | 3.0 | 5.0 | 0.00 | 0.09 | 0.00 | 59 | 1013.1 |
| 20260506132005 | 48 | 25 | 3.0 | 6.0 | 0.00 | 0.09 | 0.00 | 58 | 1013.1 |
| 20260506131915 | 48 | 16 | 3.0 | 6.0 | 0.00 | 0.09 | 0.00 | 58 | 1013.1 |
| 20260506131825 | 48 | 65 | 2.0 | 6.0 | 0.00 | 0.09 | 0.00 | 60 | 1013.1 |
| 20260506131737 | 48 | 34 | 2.0 | 6.0 | 0.00 | 0.09 | 0.00 | 60 | 1013.1 |
| 20260506131607 | 48 | 31 | 3.0 | 6.0 | 0.00 | 0.09 | 0.00 | 59 | 1013.1 |
| 20260506131533 | 48 | 55 | 3.0 | 6.0 | 0.00 | 0.09 | 0.00 | 61 | 1013.1 |
| 20260506131403 | 47 | 47 | 3.0 | 7.0 | 0.00 | 0.09 | 0.00 | 60 | 1012.9 |
| 20260506131313 | 47 | 15 | 3.0 | 7.0 | 0.00 | 0.09 | 0.00 | 58 | 1013.1 |
| 20260506131202 | 47 | 18 | 4.0 | 7.0 | 0.00 | 0.09 | 0.00 | 58 | 1012.9 |
| 20260506131114 | 47 | 55 | 4.0 | 7.0 | 0.00 | 0.09 | 0.00 | 59 | 1013.0 |
| 20260506131006 | 47 | 26 | 4.0 | 7.0 | 0.00 | 0.09 | 0.00 | 61 | 1012.9 |
| 20260506130858 | 47 | 38 | 4.0 | 7.0 | 0.00 | 0.09 | 0.00 | 59 | 1013.0 |
| 20260506130809 | 47 | 49 | 4.0 | 7.0 | 0.00 | 0.09 | 0.00 | 59 | 1012.9 |
| 20260506130704 | 47 | 9 | 5.0 | 7.0 | 0.00 | 0.09 | 0.00 | 58 | 1012.8 |
| 20260506130614 | 47 | 33 | 5.0 | 8.0 | 0.00 | 0.09 | 0.00 | 60 | 1012.9 |
| 20260506130526 | 47 | 44 | 4.0 | 8.0 | 0.00 | 0.09 | 0.00 | 60 | 1012.9 |
| 20260506130436 | 47 | 10 | 3.0 | 5.0 | 0.00 | 0.09 | 0.00 | 61 | 1012.9 |
| 20260506130309 | 47 | 24 | 3.0 | 5.0 | 0.00 | 0.09 | 0.00 | 61 | 1012.9 |
| 20260506130218 | 47 | 42 | 3.0 | 6.0 | 0.00 | 0.09 | 0.00 | 61 | 1013.0 |
| 20260506130129 | 47 | 36 | 3.0 | 6.0 | 0.00 | 0.09 | 0.00 | 62 | 1012.9 |
| 20260506130030 | 47 | 360 | 3.0 | 6.0 | 0.00 | 0.09 | 0.00 | 62 | 1012.9 |
| 20260506125902 | 47 | 33 | 4.0 | 6.0 | 0.00 | 0.09 | 0.00 | 62 | 1013.0 |
| 20260506125813 | 47 | 336 | 4.0 | 6.0 | 0.00 | 0.09 | 0.00 | 62 | 1012.9 |
| 20260506125724 | 47 | 29 | 3.0 | 6.0 | 0.00 | 0.09 | 0.00 | 62 | 1012.9 |
| 20260506125638 | 47 | 360 | 3.0 | 6.0 | 0.00 | 0.09 | 0.00 | 63 | 1013.0 |
| 20260506125506 | 47 | 36 | 3.0 | 6.0 | 0.00 | 0.09 | 0.00 | 62 | 1013.0 |
| 20260506125358 | 47 | 36 | 3.0 | 6.0 | 0.00 | 0.09 | 0.00 | 64 | 1013.1 |
| 20260506125309 | 47 | 355 | 3.0 | 6.0 | 0.00 | 0.09 | 0.00 | 64 | 1013.1 |
| 20260506125159 | 46 | 5 | 3.0 | 6.0 | 0.00 | 0.09 | 0.00 | 64 | 1012.9 |
| 20260506125109 | 46 | 9 | 3.0 | 6.0 | 0.00 | 0.09 | 0.00 | 64 | 1012.9 |
| 20260506124959 | 46 | 335 | 4.0 | 6.0 | 0.00 | 0.09 | 0.00 | 63 | 1013.0 |
| 20260506124910 | 46 | 20 | 4.0 | 6.0 | 0.00 | 0.09 | 0.00 | 63 | 1012.9 |
| 20260506124805 | 46 | 34 | 4.0 | 6.0 | 0.00 | 0.09 | 0.00 | 63 | 1012.9 |
| 20260506124715 | 46 | 9 | 4.0 | 6.0 | 0.00 | 0.09 | 0.00 | 63 | 1012.9 |
| 20260506124604 | 46 | 15 | 5.0 | 6.0 | 0.00 | 0.09 | 0.00 | 64 | 1012.9 |
| 20260506124527 | 46 | 15 | 4.0 | 7.0 | 0.00 | 0.09 | 0.00 | 64 | 1012.9 |
| 20260506124418 | 46 | 27 | 4.0 | 6.0 | 0.00 | 0.09 | 0.00 | 64 | 1012.9 |
| 20260506124308 | 46 | 13 | 4.0 | 6.0 | 0.00 | 0.09 | 0.00 | 64 | 1012.9 |
| 20260506124158 | 46 | 23 | 3.0 | 6.0 | 0.00 | 0.09 | 0.00 | 66 | 1012.9 |
| 20260506124108 | 46 | 27 | 4.0 | 6.0 | 0.00 | 0.09 | 0.00 | 65 | 1012.9 |
| 20260506124017 | 46 | 18 | 4.0 | 6.0 | 0.00 | 0.09 | 0.00 | 65 | 1012.9 |
| 20260506123928 | 46 | 31 | 4.0 | 6.0 | 0.00 | 0.09 | 0.00 | 65 | 1013.0 |
| 20260506123822 | 46 | 33 | 4.0 | 6.0 | 0.00 | 0.09 | 0.00 | 66 | 1013.0 |
| 20260506123734 | 46 | 36 | 3.0 | 6.0 | 0.00 | 0.09 | 0.00 | 68 | 1012.9 |
| 20260506123646 | 46 | 56 | 3.0 | 6.0 | 0.00 | 0.09 | 0.00 | 69 | 1012.9 |
| 20260506123557 | 46 | 32 | 3.0 | 6.0 | 0.00 | 0.09 | 0.00 | 69 | 1013.0 |
| 20260506123447 | 46 | 65 | 4.0 | 5.0 | 0.00 | 0.09 | 0.00 | 69 | 1012.9 |
| 20260506123338 | 45 | 50 | 4.0 | 5.0 | 0.00 | 0.09 | 0.00 | 68 | 1013.1 |
| 20260506123207 | 45 | 34 | 4.0 | 5.0 | 0.00 | 0.09 | 0.00 | 70 | 1013.0 |
| 20260506123119 | 45 | 24 | 3.0 | 6.0 | 0.00 | 0.09 | 0.00 | 71 | 1013.0 |
| 20260506123021 | 45 | 36 | 3.0 | 6.0 | 0.00 | 0.09 | 0.00 | 70 | 1012.9 |
| 20260506122911 | 45 | 32 | 3.0 | 6.0 | 0.00 | 0.09 | 0.00 | 70 | 1013.0 |
| 20260506122800 | 45 | 35 | 3.0 | 6.0 | 0.00 | 0.09 | 0.00 | 72 | 1013.0 |
| 20260506122716 | 45 | 42 | 3.0 | 6.0 | 0.00 | 0.09 | 0.00 | 72 | 1013.0 |
| 20260506122606 | 45 | 36 | 3.0 | 6.0 | 0.00 | 0.09 | 0.00 | 72 | 1013.1 |
| 20260506122516 | 45 | 48 | 3.0 | 6.0 | 0.00 | 0.09 | 0.00 | 72 | 1013.0 |
| 20260506122428 | 45 | 30 | 3.0 | 6.0 | 0.00 | 0.09 | 0.00 | 72 | 1012.9 |
| 20260506122338 | 44 | 32 | 3.0 | 6.0 | 0.00 | 0.09 | 0.00 | 73 | 1013.0 |
| 20260506122249 | 44 | 355 | 3.0 | 6.0 | 0.00 | 0.09 | 0.00 | 73 | 1012.9 |
| 20260506122138 | 44 | 331 | 4.0 | 6.0 | 0.00 | 0.09 | 0.00 | 73 | 1012.9 |
| 20260506122007 | 44 | 10 | 3.0 | 7.0 | 0.00 | 0.09 | 0.00 | 74 | 1012.9 |
| 20260506121859 | 44 | 351 | 3.0 | 5.0 | 0.00 | 0.09 | 0.00 | 74 | 1013.0 |
| 20260506121811 | 44 | 351 | 3.0 | 5.0 | 0.00 | 0.09 | 0.00 | 74 | 1013.0 |
| 20260506121727 | 44 | 13 | 2.0 | 5.0 | 0.00 | 0.09 | 0.00 | 76 | 1013.0 |
| 20260506121617 | 44 | 360 | 2.0 | 3.0 | 0.00 | 0.09 | 0.00 | 76 | 1012.9 |
| 20260506121537 | 44 | 360 | 2.0 | 4.0 | 0.00 | 0.09 | 0.00 | 76 | 1012.9 |
| 20260506121428 | 44 | 360 | 2.0 | 4.0 | 0.00 | 0.09 | 0.00 | 78 | 1012.9 |
| 20260506121258 | 44 | 360 | 1.0 | 4.0 | 0.00 | 0.09 | 0.00 | 78 | 1012.9 |
| 20260506121210 | 44 | 360 | 1.0 | 4.0 | 0.00 | 0.09 | 0.00 | 78 | 1012.9 |
| 20260506121120 | 43 | 360 | 2.0 | 4.0 | 0.00 | 0.09 | 0.00 | 78 | 1013.0 |
| 20260506121031 | 43 | 360 | 2.0 | 4.0 | 0.00 | 0.09 | 0.00 | 78 | 1012.9 |
| 20260506120900 | 43 | 360 | 3.0 | 4.0 | 0.00 | 0.09 | 0.00 | 79 | 1012.9 |
| 20260506120811 | 43 | 360 | 3.0 | 4.0 | 0.00 | 0.09 | 0.00 | 79 | 1012.9 |
| 20260506120706 | 43 | 360 | 3.0 | 4.0 | 0.00 | 0.09 | 0.00 | 79 | 1012.8 |
| 20260506120617 | 43 | 360 | 2.0 | 4.0 | 0.00 | 0.09 | 0.00 | 79 | 1012.8 |
| 20260506120508 | 43 | 360 | 2.0 | 4.0 | 0.00 | 0.09 | 0.00 | 80 | 1012.8 |
| 20260506120419 | 43 | 360 | 3.0 | 4.0 | 0.00 | 0.09 | 0.00 | 80 | 1012.8 |
| 20260506120310 | 43 | 360 | 2.0 | 4.0 | 0.00 | 0.09 | 0.00 | 81 | 1012.8 |
| 20260506120158 | 42 | 360 | 2.0 | 4.0 | 0.00 | 0.09 | 0.00 | 81 | 1012.9 |
| 20260506120110 | 42 | 360 | 2.0 | 4.0 | 0.00 | 0.09 | 0.00 | 81 | 1012.8 |
| 20260506120033 | 42 | 360 | 3.0 | 4.0 | 0.00 | 0.09 | 0.00 | 82 | 1012.7 |
| 20260506115902 | 42 | 360 | 2.0 | 3.0 | 0.00 | 0.09 | 0.00 | 82 | 1012.8 |
| 20260506115811 | 42 | 360 | 2.0 | 3.0 | 0.00 | 0.09 | 0.00 | 82 | 1012.7 |
| 20260506115706 | 42 | 360 | 2.0 | 3.0 | 0.00 | 0.09 | 0.00 | 83 | 1012.7 |
| 20260506115616 | 42 | 360 | 2.0 | 3.0 | 0.00 | 0.09 | 0.00 | 83 | 1012.7 |
| 20260506115507 | 42 | 360 | 2.0 | 3.0 | 0.00 | 0.09 | 0.00 | 83 | 1012.7 |
| 20260506115419 | 42 | 360 | 2.0 | 3.0 | 0.00 | 0.09 | 0.00 | 83 | 1012.7 |
| 20260506115330 | 42 | 360 | 1.0 | 3.0 | 0.00 | 0.09 | 0.00 | 84 | 1012.7 |
| 20260506115221 | 42 | 360 | 1.0 | 3.0 | 0.00 | 0.09 | 0.00 | 84 | 1012.7 |
| 20260506115111 | 41 | 360 | 1.0 | 3.0 | 0.00 | 0.09 | 0.00 | 85 | 1012.7 |
| 20260506115001 | 41 | 360 | 2.0 | 3.0 | 0.00 | 0.09 | 0.00 | 85 | 1012.7 |
| 20260506114911 | 41 | 360 | 2.0 | 4.0 | 0.00 | 0.09 | 0.00 | 85 | 1012.7 |
| 20260506114807 | 41 | 360 | 2.0 | 4.0 | 0.00 | 0.09 | 0.00 | 86 | 1012.5 |
| 20260506114717 | 41 | 360 | 2.0 | 4.0 | 0.00 | 0.09 | 0.00 | 86 | 1012.6 |
| 20260506114607 | 41 | 360 | 2.0 | 4.0 | 0.00 | 0.09 | 0.00 | 86 | 1012.6 |
| 20260506114529 | 41 | 360 | 2.0 | 4.0 | 0.00 | 0.09 | 0.00 | 86 | 1012.6 |
| 20260506114358 | 41 | 360 | 2.0 | 4.0 | 0.00 | 0.09 | 0.00 | 86 | 1012.5 |
| 20260506114310 | 40 | 360 | 2.0 | 4.0 | 0.00 | 0.09 | 0.00 | 87 | 1012.5 |
| 20260506114201 | 40 | 17 | 2.0 | 4.0 | 0.00 | 0.09 | 0.00 | 87 | 1012.6 |
| 20260506114112 | 40 | 346 | 2.0 | 4.0 | 0.00 | 0.09 | 0.00 | 87 | 1012.5 |
| 20260506114002 | 40 | 333 | 1.0 | 2.0 | 0.00 | 0.09 | 0.00 | 88 | 1012.5 |
| 20260506113916 | 40 | 333 | 0.0 | 1.0 | 0.00 | 0.09 | 0.00 | 88 | 1012.5 |
| 20260506113827 | 40 | 333 | 0.0 | 1.0 | 0.00 | 0.09 | 0.00 | 88 | 1012.5 |
| 20260506113658 | 40 | 333 | 0.0 | 1.0 | 0.00 | 0.09 | 0.00 | 88 | 1012.4 |
| 20260506113609 | 40 | 333 | 0.0 | 1.0 | 0.00 | 0.09 | 0.00 | 88 | 1012.4 |
| 20260506113500 | 40 | 333 | 0.0 | 1.0 | 0.00 | 0.09 | 0.00 | 88 | 1012.4 |
| 20260506113411 | 39 | 333 | 0.0 | 1.0 | 0.00 | 0.09 | 0.00 | 88 | 1012.5 |
| 20260506113302 | 39 | 333 | 0.0 | 1.0 | 0.00 | 0.09 | 0.00 | 88 | 1012.4 |
| 20260506113211 | 39 | 333 | 1.0 | 1.0 | 0.00 | 0.09 | 0.00 | 88 | 1012.3 |
| 20260506113122 | 39 | 333 | 0.0 | 1.0 | 0.00 | 0.09 | 0.00 | 88 | 1012.2 |
| 20260506113023 | 39 | 333 | 0.0 | 1.0 | 0.00 | 0.09 | 0.00 | 88 | 1012.4 |
| 20260506112916 | 39 | 333 | 0.0 | 1.0 | 0.00 | 0.09 | 0.00 | 88 | 1012.3 |
| 20260506112808 | 39 | 333 | 0.0 | 1.0 | 0.00 | 0.09 | 0.00 | 88 | 1012.3 |
| 20260506112700 | 39 | 333 | 0.0 | 2.0 | 0.00 | 0.09 | 0.00 | 88 | 1012.3 |
| 20260506112612 | 39 | 333 | 0.0 | 2.0 | 0.00 | 0.09 | 0.00 | 88 | 1012.3 |
| 20260506112524 | 38 | 333 | 0.0 | 2.0 | 0.00 | 0.09 | 0.00 | 89 | 1012.3 |
| 20260506112434 | 38 | 333 | 0.0 | 2.0 | 0.00 | 0.09 | 0.00 | 88 | 1012.3 |
| 20260506112305 | 38 | 333 | 0.0 | 2.0 | 0.00 | 0.09 | 0.00 | 89 | 1012.3 |
| 20260506112215 | 38 | 333 | 0.0 | 2.0 | 0.00 | 0.09 | 0.00 | 89 | 1012.3 |
| 20260506112104 | 38 | 333 | 0.0 | 2.0 | 0.00 | 0.09 | 0.00 | 89 | 1012.2 |
| 20260506112000 | 38 | 333 | 0.0 | 2.0 | 0.00 | 0.09 | 0.00 | 89 | 1012.2 |
| 20260506111913 | 38 | 333 | 0.0 | 2.0 | 0.00 | 0.09 | 0.00 | 89 | 1012.1 |
| 20260506111823 | 38 | 333 | 0.0 | 2.0 | 0.00 | 0.09 | 0.00 | 89 | 1012.2 |
| 20260506111733 | 38 | 333 | 0.0 | 1.0 | 0.00 | 0.09 | 0.00 | 89 | 1012.0 |
| 20260506111602 | 38 | 333 | 0.0 | 1.0 | 0.00 | 0.09 | 0.00 | 89 | 1011.9 |
| 20260506111525 | 38 | 333 | 0.0 | 1.0 | 0.00 | 0.09 | 0.00 | 89 | 1012.0 |
| 20260506111416 | 38 | 333 | 0.0 | 1.0 | 0.00 | 0.09 | 0.00 | 89 | 1011.9 |
| 20260506111325 | 38 | 333 | 0.0 | 1.0 | 0.00 | 0.09 | 0.00 | 89 | 1011.9 |
| 20260506111216 | 38 | 333 | 0.0 | 1.0 | 0.00 | 0.09 | 0.00 | 89 | 1011.8 |
| 20260506111128 | 38 | 333 | 0.0 | 1.0 | 0.00 | 0.09 | 0.00 | 89 | 1011.8 |
| 20260506111001 | 38 | 333 | 0.0 | 1.0 | 0.00 | 0.09 | 0.00 | 89 | 1011.8 |
| 20260506110913 | 38 | 333 | 0.0 | 1.0 | 0.00 | 0.09 | 0.00 | 89 | 1011.8 |
| 20260506110803 | 37 | 333 | 0.0 | 0.0 | 0.00 | 0.09 | 0.00 | 89 | 1011.8 |
| 20260506110715 | 37 | 313 | 0.0 | 0.0 | 0.00 | 0.09 | 0.00 | 89 | 1011.8 |
| 20260506110605 | 37 | 16 | 0.0 | 0.0 | 0.00 | 0.09 | 0.00 | 89 | 1011.8 |
| 20260506110516 | 37 | 16 | 0.0 | 0.0 | 0.00 | 0.09 | 0.00 | 89 | 1011.8 |
| 20260506110408 | 37 | 16 | 0.0 | 0.0 | 0.00 | 0.09 | 0.00 | 89 | 1011.8 |
| 20260506110300 | 37 | 16 | 0.0 | 0.0 | 0.00 | 0.09 | 0.00 | 89 | 1011.8 |
| 20260506110210 | 37 | 16 | 0.0 | 0.0 | 0.00 | 0.09 | 0.00 | 89 | 1011.8 |
| 20260506110125 | 37 | 16 | 0.0 | 0.0 | 0.00 | 0.09 | 0.00 | 89 | 1011.8 |
| 20260506110048 | 37 | 16 | 0.0 | 0.0 | 0.00 | 0.09 | 0.00 | 89 | 1011.8 |
| 20260506105937 | 37 | 16 | 0.0 | 0.0 | 0.00 | 0.09 | 0.00 | 89 | 1011.7 |
| 20260506105849 | 37 | 16 | 0.0 | 0.0 | 0.00 | 0.09 | 0.00 | 89 | 1011.6 |
| 20260506105739 | 37 | 16 | 0.0 | 0.0 | 0.00 | 0.09 | 0.00 | 89 | 1011.6 |
| 20260506105609 | 37 | 16 | 0.0 | 0.0 | 0.00 | 0.09 | 0.00 | 89 | 1011.6 |
| 20260506105520 | 37 | 16 | 0.0 | 0.0 | 0.00 | 0.09 | 0.00 | 89 | 1011.6 |
| 20260506105432 | 37 | 16 | 0.0 | 0.0 | 0.00 | 0.09 | 0.00 | 89 | 1011.6 |
| 20260506105344 | 37 | 16 | 0.0 | 0.0 | 0.00 | 0.09 | 0.00 | 89 | 1011.6 |
| 20260506105233 | 37 | 16 | 0.0 | 0.0 | 0.00 | 0.09 | 0.00 | 89 | 1011.5 |
| 20260506105103 | 37 | 16 | 0.0 | 0.0 | 0.00 | 0.09 | 0.00 | 89 | 1011.5 |
| 20260506105017 | 37 | 16 | 0.0 | 0.0 | 0.00 | 0.09 | 0.00 | 89 | 1011.5 |
| 20260506104908 | 37 | 16 | 0.0 | 0.0 | 0.00 | 0.09 | 0.00 | 89 | 1011.6 |
| 20260506104759 | 37 | 16 | 0.0 | 0.0 | 0.00 | 0.09 | 0.00 | 88 | 1011.4 |
| 20260506104711 | 37 | 16 | 0.0 | 0.0 | 0.00 | 0.09 | 0.00 | 88 | 1011.6 |
| 20260506104622 | 37 | 16 | 0.0 | 0.0 | 0.00 | 0.09 | 0.00 | 88 | 1011.6 |
| 20260506104546 | 37 | 16 | 0.0 | 0.0 | 0.00 | 0.09 | 0.00 | 88 | 1011.6 |
| 20260506104435 | 37 | 16 | 0.0 | 0.0 | 0.00 | 0.09 | 0.00 | 88 | 1011.7 |
| 20260506104305 | 37 | 16 | 0.0 | 0.0 | 0.00 | 0.09 | 0.00 | 88 | 1011.6 |
| 20260506104217 | 37 | 16 | 0.0 | 0.0 | 0.00 | 0.09 | 0.00 | 88 | 1011.6 |
| 20260506104113 | 37 | 16 | 0.0 | 0.0 | 0.00 | 0.09 | 0.00 | 88 | 1011.5 |
| 20260506104004 | 37 | 16 | 0.0 | 0.0 | 0.00 | 0.09 | 0.00 | 88 | 1011.5 |
| 20260506103915 | 37 | 16 | 0.0 | 0.0 | 0.00 | 0.09 | 0.00 | 88 | 1011.4 |
| 20260506103808 | 37 | 16 | 0.0 | 0.0 | 0.00 | 0.09 | 0.00 | 88 | 1011.5 |
| 20260506103720 | 37 | 16 | 0.0 | 0.0 | 0.00 | 0.09 | 0.00 | 88 | 1011.5 |
| 20260506103609 | 37 | 16 | 0.0 | 0.0 | 0.00 | 0.09 | 0.00 | 88 | 1011.6 |
| 20260506103501 | 37 | 16 | 0.0 | 0.0 | 0.00 | 0.09 | 0.00 | 88 | 1011.5 |
| 20260506103411 | 37 | 16 | 0.0 | 0.0 | 0.00 | 0.09 | 0.00 | 88 | 1011.5 |
| 20260506103303 | 37 | 16 | 0.0 | 0.0 | 0.00 | 0.09 | 0.00 | 88 | 1011.5 |
| 20260506103218 | 37 | 16 | 0.0 | 0.0 | 0.00 | 0.09 | 0.00 | 88 | 1011.6 |
| 20260506103108 | 37 | 16 | 0.0 | 0.0 | 0.00 | 0.09 | 0.00 | 88 | 1011.5 |
| 20260506103031 | 37 | 16 | 0.0 | 0.0 | 0.00 | 0.09 | 0.00 | 88 | 1011.6 |
| 20260506102900 | 37 | 16 | 0.0 | 0.0 | 0.00 | 0.09 | 0.00 | 87 | 1011.6 |
| 20260506102813 | 37 | 16 | 0.0 | 0.0 | 0.00 | 0.09 | 0.00 | 87 | 1011.6 |
| 20260506102703 | 37 | 16 | 0.0 | 0.0 | 0.00 | 0.09 | 0.00 | 87 | 1011.6 |
| 20260506102615 | 37 | 16 | 0.0 | 0.0 | 0.00 | 0.09 | 0.00 | 87 | 1011.5 |
| 20260506102505 | 37 | 16 | 0.0 | 0.0 | 0.00 | 0.09 | 0.00 | 87 | 1011.4 |
| 20260506102415 | 37 | 16 | 0.0 | 0.0 | 0.00 | 0.09 | 0.00 | 87 | 1011.5 |
| 20260506102330 | 37 | 16 | 0.0 | 0.0 | 0.00 | 0.09 | 0.00 | 87 | 1011.5 |
| 20260506102159 | 37 | 16 | 0.0 | 0.0 | 0.00 | 0.09 | 0.00 | 87 | 1011.5 |
| 20260506102110 | 37 | 16 | 0.0 | 0.0 | 0.00 | 0.09 | 0.00 | 87 | 1011.4 |
| 20260506102021 | 37 | 16 | 0.0 | 0.0 | 0.00 | 0.09 | 0.00 | 87 | 1011.6 |
| 20260506101932 | 38 | 16 | 0.0 | 0.0 | 0.00 | 0.09 | 0.00 | 86 | 1011.6 |
| 20260506101802 | 38 | 16 | 0.0 | 0.0 | 0.00 | 0.09 | 0.00 | 86 | 1011.6 |
| 20260506101713 | 38 | 16 | 0.0 | 0.0 | 0.00 | 0.09 | 0.00 | 86 | 1011.6 |
| 20260506101604 | 37 | 16 | 0.0 | 0.0 | 0.00 | 0.09 | 0.00 | 86 | 1011.4 |
| 20260506101526 | 38 | 16 | 0.0 | 0.0 | 0.00 | 0.09 | 0.00 | 86 | 1011.4 |
| 20260506101402 | 38 | 16 | 0.0 | 0.0 | 0.00 | 0.09 | 0.00 | 86 | 1011.3 |
| 20260506101314 | 38 | 16 | 0.0 | 0.0 | 0.00 | 0.09 | 0.00 | 86 | 1011.3 |
| 20260506101224 | 38 | 16 | 0.0 | 0.0 | 0.00 | 0.09 | 0.00 | 85 | 1011.3 |
| 20260506101114 | 38 | 16 | 0.0 | 0.0 | 0.00 | 0.09 | 0.00 | 85 | 1011.3 |
| 20260506101005 | 38 | 16 | 0.0 | 0.0 | 0.00 | 0.09 | 0.00 | 85 | 1011.3 |
| 20260506100916 | 37 | 16 | 0.0 | 0.0 | 0.00 | 0.09 | 0.00 | 84 | 1011.4 |
| 20260506100807 | 38 | 16 | 0.0 | 0.0 | 0.00 | 0.09 | 0.00 | 85 | 1011.4 |
| 20260506100719 | 38 | 16 | 0.0 | 0.0 | 0.00 | 0.09 | 0.00 | 84 | 1011.5 |
| 20260506100630 | 38 | 16 | 0.0 | 0.0 | 0.00 | 0.09 | 0.00 | 84 | 1011.4 |
| 20260506100520 | 38 | 16 | 0.0 | 0.0 | 0.00 | 0.09 | 0.00 | 84 | 1011.4 |
| 20260506100430 | 38 | 16 | 0.0 | 0.0 | 0.00 | 0.09 | 0.00 | 83 | 1011.3 |
| 20260506100324 | 38 | 16 | 0.0 | 0.0 | 0.00 | 0.09 | 0.00 | 84 | 1011.4 |
| 20260506100212 | 38 | 16 | 0.0 | 0.0 | 0.00 | 0.09 | 0.00 | 83 | 1011.4 |
| 20260506100023 | 38 | 16 | 0.0 | 0.0 | 0.00 | 0.09 | 0.00 | 83 | 1011.4 |
| 20260506095913 | 38 | 16 | 0.0 | 0.0 | 0.00 | 0.09 | 0.00 | 83 | 1011.4 |
| 20260506095823 | 38 | 16 | 0.0 | 0.0 | 0.00 | 0.09 | 0.00 | 83 | 1011.4 |
| 20260506095734 | 38 | 16 | 0.0 | 0.0 | 0.00 | 0.09 | 0.00 | 83 | 1011.4 |
| 20260506095646 | 38 | 16 | 0.0 | 0.0 | 0.00 | 0.09 | 0.00 | 83 | 1011.4 |
| 20260506095535 | 38 | 16 | 0.0 | 0.0 | 0.00 | 0.09 | 0.00 | 83 | 1011.4 |
| 20260506095425 | 38 | 16 | 0.0 | 0.0 | 0.00 | 0.09 | 0.00 | 83 | 1011.4 |
| 20260506095316 | 38 | 16 | 0.0 | 0.0 | 0.00 | 0.09 | 0.00 | 83 | 1011.4 |
| 20260506095210 | 38 | 16 | 0.0 | 0.0 | 0.00 | 0.09 | 0.00 | 83 | 1011.4 |
| 20260506095102 | 38 | 16 | 0.0 | 0.0 | 0.00 | 0.09 | 0.00 | 83 | 1011.3 |
| 20260506095012 | 38 | 16 | 0.0 | 0.0 | 0.00 | 0.09 | 0.00 | 82 | 1011.3 |
| 20260506094923 | 38 | 16 | 0.0 | 0.0 | 0.00 | 0.09 | 0.00 | 82 | 1011.4 |
| 20260506094833 | 38 | 16 | 0.0 | 0.0 | 0.00 | 0.09 | 0.00 | 82 | 1011.3 |
| 20260506094704 | 38 | 16 | 0.0 | 0.0 | 0.00 | 0.09 | 0.00 | 82 | 1011.3 |
| 20260506094615 | 39 | 16 | 0.0 | 0.0 | 0.00 | 0.09 | 0.00 | 82 | 1011.3 |
| 20260506094536 | 39 | 16 | 0.0 | 0.0 | 0.00 | 0.09 | 0.00 | 82 | 1011.4 |
| 20260506094425 | 39 | 16 | 0.0 | 0.0 | 0.00 | 0.09 | 0.00 | 82 | 1011.3 |
| 20260506094314 | 39 | 16 | 0.0 | 0.0 | 0.00 | 0.09 | 0.00 | 82 | 1011.3 |
| 20260506094209 | 39 | 16 | 0.0 | 0.0 | 0.00 | 0.09 | 0.00 | 82 | 1011.3 |
| 20260506094059 | 39 | 16 | 0.0 | 0.0 | 0.00 | 0.09 | 0.00 | 82 | 1011.3 |
| 20260506094009 | 39 | 16 | 0.0 | 0.0 | 0.00 | 0.09 | 0.00 | 82 | 1011.2 |
| 20260506093920 | 39 | 16 | 0.0 | 0.0 | 0.00 | 0.09 | 0.00 | 82 | 1011.2 |
| 20260506093809 | 39 | 16 | 0.0 | 0.0 | 0.00 | 0.09 | 0.00 | 82 | 1011.2 |
| 20260506093720 | 39 | 16 | 0.0 | 0.0 | 0.00 | 0.09 | 0.00 | 82 | 1011.2 |
| 20260506093630 | 39 | 16 | 0.0 | 0.0 | 0.00 | 0.09 | 0.00 | 81 | 1011.3 |
| 20260506093521 | 39 | 16 | 0.0 | 0.0 | 0.00 | 0.09 | 0.00 | 81 | 1011.3 |
| 20260506093410 | 39 | 16 | 0.0 | 0.0 | 0.00 | 0.09 | 0.00 | 81 | 1011.2 |
| 20260506093302 | 39 | 16 | 0.0 | 0.0 | 0.00 | 0.09 | 0.00 | 81 | 1011.3 |
| 20260506093212 | 39 | 16 | 0.0 | 0.0 | 0.00 | 0.09 | 0.00 | 81 | 1011.2 |
| 20260506093106 | 39 | 16 | 0.0 | 0.0 | 0.00 | 0.09 | 0.00 | 81 | 1011.2 |
| 20260506093029 | 39 | 16 | 0.0 | 0.0 | 0.00 | 0.09 | 0.00 | 81 | 1011.2 |
| 20260506092859 | 39 | 16 | 0.0 | 0.0 | 0.00 | 0.09 | 0.00 | 81 | 1011.3 |
| 20260506092809 | 39 | 16 | 0.0 | 0.0 | 0.00 | 0.09 | 0.00 | 81 | 1011.2 |
| 20260506092701 | 39 | 16 | 0.0 | 0.0 | 0.00 | 0.09 | 0.00 | 81 | 1011.2 |
| 20260506092612 | 39 | 16 | 0.0 | 0.0 | 0.00 | 0.09 | 0.00 | 81 | 1011.2 |
| 20260506092504 | 40 | 16 | 0.0 | 0.0 | 0.00 | 0.09 | 0.00 | 80 | 1011.3 |
| 20260506092414 | 40 | 16 | 0.0 | 0.0 | 0.00 | 0.09 | 0.00 | 80 | 1011.4 |
| 20260506092308 | 40 | 16 | 0.0 | 0.0 | 0.00 | 0.09 | 0.00 | 80 | 1011.3 |
| 20260506092158 | 40 | 16 | 0.0 | 0.0 | 0.00 | 0.09 | 0.00 | 80 | 1011.2 |
| 20260506092109 | 40 | 16 | 0.0 | 0.0 | 0.00 | 0.09 | 0.00 | 80 | 1011.2 |
| 20260506091959 | 40 | 16 | 0.0 | 0.0 | 0.00 | 0.09 | 0.00 | 80 | 1011.2 |
| 20260506091911 | 40 | 16 | 0.0 | 0.0 | 0.00 | 0.09 | 0.00 | 80 | 1011.2 |
| 20260506091801 | 40 | 16 | 0.0 | 0.0 | 0.00 | 0.09 | 0.00 | 80 | 1011.2 |
| 20260506091714 | 40 | 16 | 0.0 | 0.0 | 0.00 | 0.09 | 0.00 | 80 | 1011.2 |
| 20260506091604 | 40 | 16 | 0.0 | 0.0 | 0.00 | 0.09 | 0.00 | 79 | 1011.1 |
| 20260506091526 | 40 | 16 | 0.0 | 0.0 | 0.00 | 0.09 | 0.00 | 79 | 1011.1 |
| 20260506091420 | 40 | 16 | 0.0 | 0.0 | 0.00 | 0.09 | 0.00 | 79 | 1011.2 |
| 20260506091331 | 40 | 16 | 0.0 | 0.0 | 0.00 | 0.09 | 0.00 | 79 | 1011.1 |
| 20260506091200 | 40 | 16 | 0.0 | 0.0 | 0.00 | 0.09 | 0.00 | 79 | 1011.1 |
| 20260506091113 | 40 | 16 | 0.0 | 0.0 | 0.00 | 0.09 | 0.00 | 79 | 1011.1 |
| 20260506091003 | 40 | 16 | 0.0 | 0.0 | 0.00 | 0.09 | 0.00 | 79 | 1011.1 |
| 20260506090914 | 40 | 16 | 0.0 | 0.0 | 0.00 | 0.09 | 0.00 | 79 | 1011.1 |
| 20260506090825 | 40 | 16 | 0.0 | 0.0 | 0.00 | 0.09 | 0.00 | 79 | 1011.2 |
| 20260506090736 | 40 | 16 | 0.0 | 0.0 | 0.00 | 0.09 | 0.00 | 79 | 1011.2 |
| 20260506090648 | 41 | 16 | 0.0 | 0.0 | 0.00 | 0.09 | 0.00 | 79 | 1011.2 |
| 20260506090538 | 41 | 16 | 0.0 | 0.0 | 0.00 | 0.09 | 0.00 | 79 | 1011.2 |
| 20260506090410 | 41 | 16 | 0.0 | 0.0 | 0.00 | 0.09 | 0.00 | 79 | 1011.2 |
| 20260506090304 | 41 | 16 | 0.0 | 0.0 | 0.00 | 0.09 | 0.00 | 78 | 1011.2 |
| 20260506090214 | 41 | 16 | 0.0 | 0.0 | 0.00 | 0.09 | 0.00 | 78 | 1011.2 |
| 20260506090105 | 41 | 16 | 0.0 | 0.0 | 0.00 | 0.09 | 0.00 | 78 | 1011.2 |
| 20260506090027 | 41 | 16 | 0.0 | 0.0 | 0.00 | 0.09 | 0.00 | 78 | 1011.2 |
| 20260506085917 | 41 | 16 | 0.0 | 0.0 | 0.00 | 0.09 | 0.00 | 78 | 1011.1 |
| 20260506085808 | 41 | 16 | 0.0 | 0.0 | 0.00 | 0.09 | 0.00 | 78 | 1011.1 |
| 20260506085659 | 41 | 16 | 0.0 | 0.0 | 0.00 | 0.09 | 0.00 | 78 | 1011.2 |
| 20260506085609 | 41 | 16 | 0.0 | 0.0 | 0.00 | 0.09 | 0.00 | 78 | 1011.1 |
| 20260506085525 | 41 | 16 | 0.0 | 0.0 | 0.00 | 0.09 | 0.00 | 78 | 1011.1 |
| 20260506085438 | 41 | 16 | 0.0 | 0.0 | 0.00 | 0.09 | 0.00 | 78 | 1011.1 |
| 20260506085306 | 41 | 16 | 0.0 | 0.0 | 0.00 | 0.09 | 0.00 | 78 | 1011.0 |
| 20260506085217 | 41 | 16 | 0.0 | 0.0 | 0.00 | 0.09 | 0.00 | 78 | 1011.0 |
| 20260506085109 | 41 | 16 | 0.0 | 0.0 | 0.00 | 0.09 | 0.00 | 78 | 1011.1 |
| 20260506084959 | 41 | 16 | 0.0 | 1.0 | 0.00 | 0.09 | 0.00 | 78 | 1011.1 |
| 20260506084910 | 41 | 16 | 0.0 | 1.0 | 0.00 | 0.09 | 0.00 | 78 | 1011.0 |
| 20260506084800 | 41 | 16 | 0.0 | 1.0 | 0.00 | 0.09 | 0.00 | 78 | 1011.0 |
| 20260506084712 | 41 | 16 | 0.0 | 1.0 | 0.00 | 0.09 | 0.00 | 78 | 1010.9 |
| 20260506084608 | 42 | 16 | 0.0 | 1.0 | 0.00 | 0.09 | 0.00 | 77 | 1010.9 |
| 20260506084531 | 42 | 16 | 0.0 | 1.0 | 0.00 | 0.09 | 0.00 | 77 | 1010.9 |
| 20260506084401 | 42 | 16 | 0.0 | 1.0 | 0.00 | 0.09 | 0.00 | 77 | 1010.9 |
| 20260506084311 | 42 | 16 | 0.0 | 1.0 | 0.00 | 0.09 | 0.00 | 77 | 1010.9 |
| 20260506084202 | 42 | 16 | 0.0 | 1.0 | 0.00 | 0.09 | 0.00 | 77 | 1010.9 |
| 20260506084113 | 42 | 16 | 0.0 | 1.0 | 0.00 | 0.09 | 0.00 | 77 | 1011.0 |
| 20260506084003 | 42 | 16 | 0.0 | 2.0 | 0.00 | 0.09 | 0.00 | 77 | 1011.0 |
| 20260506083914 | 42 | 16 | 0.0 | 2.0 | 0.00 | 0.09 | 0.00 | 77 | 1011.0 |
| 20260506083808 | 42 | 16 | 0.0 | 2.0 | 0.00 | 0.09 | 0.00 | 77 | 1010.9 |
| 20260506083718 | 42 | 16 | 0.0 | 2.0 | 0.00 | 0.09 | 0.00 | 77 | 1011.0 |
| 20260506083630 | 42 | 16 | 0.0 | 2.0 | 0.00 | 0.09 | 0.00 | 77 | 1011.0 |
| 20260506083500 | 42 | 16 | 0.0 | 2.0 | 0.00 | 0.09 | 0.00 | 77 | 1011.0 |
| 20260506083410 | 42 | 16 | 0.0 | 2.0 | 0.00 | 0.09 | 0.00 | 77 | 1011.0 |
| 20260506083304 | 42 | 16 | 0.0 | 2.0 | 0.00 | 0.09 | 0.00 | 77 | 1011.0 |
| 20260506083213 | 42 | 16 | 1.0 | 3.0 | 0.00 | 0.09 | 0.00 | 77 | 1011.0 |
| 20260506083126 | 42 | 16 | 1.0 | 4.0 | 0.00 | 0.09 | 0.00 | 77 | 1011.0 |
| 20260506083026 | 42 | 16 | 1.0 | 4.0 | 0.00 | 0.09 | 0.00 | 77 | 1010.9 |
| 20260506082916 | 42 | 16 | 1.0 | 4.0 | 0.00 | 0.09 | 0.00 | 77 | 1011.0 |
| 20260506082811 | 42 | 16 | 1.0 | 4.0 | 0.00 | 0.09 | 0.00 | 77 | 1010.9 |
| 20260506082723 | 42 | 16 | 1.0 | 4.0 | 0.00 | 0.09 | 0.00 | 78 | 1010.8 |
| 20260506082614 | 42 | 16 | 2.0 | 4.0 | 0.00 | 0.09 | 0.00 | 78 | 1010.8 |
| 20260506082525 | 42 | 16 | 2.0 | 4.0 | 0.00 | 0.09 | 0.00 | 78 | 1010.8 |
| 20260506082436 | 42 | 16 | 2.0 | 4.0 | 0.00 | 0.09 | 0.00 | 78 | 1010.8 |
| 20260506082308 | 42 | 336 | 2.0 | 4.0 | 0.00 | 0.09 | 0.00 | 78 | 1010.9 |
| 20260506082158 | 42 | 347 | 2.0 | 4.0 | 0.00 | 0.09 | 0.00 | 78 | 1010.8 |
| 20260506082108 | 42 | 17 | 2.0 | 4.0 | 0.00 | 0.09 | 0.00 | 78 | 1010.6 |
| 20260506081959 | 42 | 17 | 2.0 | 4.0 | 0.00 | 0.09 | 0.00 | 78 | 1010.7 |
| 20260506081910 | 42 | 17 | 2.0 | 4.0 | 0.00 | 0.09 | 0.00 | 78 | 1010.7 |
| 20260506081804 | 42 | 17 | 2.0 | 4.0 | 0.00 | 0.09 | 0.00 | 78 | 1010.6 |
| 20260506081715 | 42 | 36 | 2.0 | 3.0 | 0.00 | 0.09 | 0.00 | 78 | 1010.6 |
| 20260506081607 | 42 | 36 | 1.0 | 3.0 | 0.00 | 0.09 | 0.00 | 78 | 1010.5 |
| 20260506081529 | 42 | 36 | 1.0 | 3.0 | 0.00 | 0.09 | 0.00 | 78 | 1010.6 |
| 20260506081419 | 42 | 36 | 0.0 | 2.0 | 0.00 | 0.09 | 0.00 | 78 | 1010.6 |
| 20260506081310 | 42 | 36 | 0.0 | 2.0 | 0.00 | 0.09 | 0.00 | 78 | 1010.5 |
| 20260506081201 | 42 | 36 | 0.0 | 3.0 | 0.00 | 0.09 | 0.00 | 78 | 1010.5 |
| 20260506081113 | 42 | 36 | 0.0 | 3.0 | 0.00 | 0.09 | 0.00 | 78 | 1010.5 |
| 20260506081003 | 42 | 36 | 1.0 | 3.0 | 0.00 | 0.09 | 0.00 | 78 | 1010.5 |
| 20260506080919 | 42 | 36 | 1.0 | 4.0 | 0.00 | 0.09 | 0.00 | 77 | 1010.5 |
| 20260506080808 | 42 | 36 | 1.0 | 4.0 | 0.00 | 0.09 | 0.00 | 77 | 1010.5 |
| 20260506080658 | 42 | 36 | 1.0 | 4.0 | 0.00 | 0.09 | 0.00 | 77 | 1010.5 |
| 20260506080608 | 42 | 36 | 1.0 | 5.0 | 0.00 | 0.09 | 0.00 | 77 | 1010.4 |
| 20260506080459 | 42 | 36 | 1.0 | 5.0 | 0.00 | 0.09 | 0.00 | 77 | 1010.5 |
| 20260506080409 | 42 | 36 | 2.0 | 5.0 | 0.00 | 0.09 | 0.00 | 77 | 1010.4 |
| 20260506080322 | 42 | 36 | 2.0 | 5.0 | 0.00 | 0.09 | 0.00 | 77 | 1010.4 |
| 20260506080209 | 42 | 44 | 2.0 | 5.0 | 0.00 | 0.09 | 0.00 | 77 | 1010.4 |
| 20260506080121 | 42 | 39 | 2.0 | 5.0 | 0.00 | 0.09 | 0.00 | 77 | 1010.4 |
| 20260506073512 | 44 | 5 | 3.0 | 6.0 | 0.00 | 0.09 | 0.00 | 74 | 1010.6 |
| 20260506073403 | 44 | 16 | 2.0 | 6.0 | 0.00 | 0.09 | 0.00 | 74 | 1010.8 |
| 20260506073315 | 44 | 22 | 2.0 | 6.0 | 0.00 | 0.09 | 0.00 | 74 | 1010.7 |
| 20260506073203 | 44 | 16 | 3.0 | 6.0 | 0.00 | 0.09 | 0.00 | 73 | 1010.7 |
| 20260506073114 | 44 | 16 | 3.0 | 7.0 | 0.00 | 0.09 | 0.00 | 73 | 1010.6 |
| 20260506073040 | 44 | 12 | 3.0 | 6.0 | 0.00 | 0.09 | 0.00 | 73 | 1010.6 |
| 20260506072928 | 44 | 21 | 3.0 | 6.0 | 0.00 | 0.09 | 0.00 | 73 | 1010.6 |
| 20260506072759 | 44 | 24 | 3.0 | 6.0 | 0.00 | 0.09 | 0.00 | 73 | 1010.5 |
| 20260506072710 | 44 | 333 | 3.0 | 6.0 | 0.00 | 0.09 | 0.00 | 73 | 1010.5 |
| 20260506072600 | 44 | 360 | 3.0 | 6.0 | 0.00 | 0.09 | 0.00 | 73 | 1010.5 |
| 20260506072511 | 44 | 28 | 3.0 | 6.0 | 0.00 | 0.09 | 0.00 | 73 | 1010.6 |
| 20260506072420 | 44 | 25 | 3.0 | 6.0 | 0.00 | 0.09 | 0.00 | 73 | 1010.6 |
| 20260506072331 | 44 | 351 | 3.0 | 6.0 | 0.00 | 0.09 | 0.00 | 73 | 1010.5 |
| 20260506072241 | 44 | 13 | 2.0 | 6.0 | 0.00 | 0.09 | 0.00 | 73 | 1010.6 |
| 20260506072132 | 44 | 348 | 3.0 | 6.0 | 0.00 | 0.09 | 0.00 | 73 | 1010.6 |
| 20260506072022 | 45 | 15 | 3.0 | 7.0 | 0.00 | 0.09 | 0.00 | 73 | 1010.7 |
| 20260506071915 | 45 | 11 | 3.0 | 5.0 | 0.00 | 0.09 | 0.00 | 73 | 1010.6 |
| 20260506071806 | 45 | 355 | 3.0 | 6.0 | 0.00 | 0.09 | 0.00 | 72 | 1010.6 |
| 20260506071716 | 45 | 11 | 3.0 | 6.0 | 0.00 | 0.09 | 0.00 | 72 | 1010.6 |
| 20260506071607 | 45 | 5 | 3.0 | 6.0 | 0.00 | 0.09 | 0.00 | 72 | 1010.6 |
| 20260506071528 | 45 | 19 | 3.0 | 8.0 | 0.00 | 0.09 | 0.00 | 72 | 1010.6 |
| 20260506071358 | 45 | 350 | 3.0 | 8.0 | 0.00 | 0.09 | 0.00 | 72 | 1010.6 |
| 20260506071309 | 45 | 5 | 3.0 | 8.0 | 0.00 | 0.09 | 0.00 | 72 | 1010.7 |
| 20260506071200 | 45 | 5 | 3.0 | 8.0 | 0.00 | 0.09 | 0.00 | 72 | 1010.6 |
| 20260506071110 | 45 | 342 | 4.0 | 8.0 | 0.00 | 0.09 | 0.00 | 72 | 1010.6 |
| 20260506071005 | 45 | 344 | 4.0 | 8.0 | 0.00 | 0.09 | 0.00 | 72 | 1010.6 |
| 20260506070916 | 45 | 350 | 4.0 | 8.0 | 0.00 | 0.09 | 0.00 | 72 | 1010.6 |
| 20260506070828 | 45 | 15 | 4.0 | 8.0 | 0.00 | 0.09 | 0.00 | 72 | 1010.6 |
| 20260506070717 | 45 | 13 | 4.0 | 6.0 | 0.00 | 0.09 | 0.00 | 72 | 1010.5 |
| 20260506070627 | 45 | 9 | 4.0 | 7.0 | 0.00 | 0.09 | 0.00 | 72 | 1010.5 |
| 20260506070537 | 45 | 5 | 4.0 | 6.0 | 0.00 | 0.09 | 0.00 | 72 | 1010.5 |
| 20260506070407 | 45 | 36 | 4.0 | 6.0 | 0.00 | 0.09 | 0.00 | 72 | 1010.5 |
| 20260506070319 | 45 | 15 | 4.0 | 6.0 | 0.00 | 0.09 | 0.00 | 71 | 1010.5 |
| 20260506070208 | 45 | 16 | 4.0 | 6.0 | 0.00 | 0.09 | 0.00 | 71 | 1010.6 |
| 20260506070103 | 45 | 5 | 4.0 | 7.0 | 0.00 | 0.09 | 0.00 | 72 | 1010.5 |
| 20260506062416 | 46 | 329 | 3.0 | 5.0 | 0.00 | 0.09 | 0.00 | 75 | 1010.9 |
| 20260506062308 | 46 | 348 | 3.0 | 5.0 | 0.00 | 0.09 | 0.00 | 76 | 1010.8 |
| 20260506062202 | 46 | 360 | 3.0 | 5.0 | 0.00 | 0.09 | 0.00 | 76 | 1010.8 |
| 20260506062113 | 46 | 360 | 3.0 | 5.0 | 0.00 | 0.09 | 0.00 | 76 | 1010.8 |
| 20260506062004 | 46 | 344 | 3.0 | 5.0 | 0.00 | 0.09 | 0.00 | 77 | 1010.8 |
| 20260506061915 | 46 | 344 | 3.0 | 5.0 | 0.00 | 0.09 | 0.00 | 77 | 1010.7 |
| 20260506061806 | 46 | 15 | 3.0 | 5.0 | 0.00 | 0.09 | 0.00 | 77 | 1010.7 |
| 20260506061716 | 46 | 344 | 3.0 | 5.0 | 0.00 | 0.09 | 0.00 | 77 | 1010.8 |
| 20260506061607 | 46 | 348 | 1.0 | 5.0 | 0.00 | 0.09 | 0.00 | 78 | 1010.8 |
| 20260506061530 | 46 | 360 | 1.0 | 4.0 | 0.00 | 0.09 | 0.00 | 78 | 1010.8 |
| 20260506061420 | 46 | 348 | 1.0 | 4.0 | 0.00 | 0.09 | 0.00 | 78 | 1010.7 |
| 20260506061310 | 46 | 348 | 1.0 | 4.0 | 0.00 | 0.09 | 0.00 | 78 | 1010.7 |
| 20260506061205 | 46 | 348 | 2.0 | 4.0 | 0.00 | 0.09 | 0.00 | 79 | 1010.7 |
| 20260506061115 | 46 | 344 | 3.0 | 4.0 | 0.00 | 0.09 | 0.00 | 79 | 1010.6 |
| 20260506061007 | 46 | 355 | 3.0 | 4.0 | 0.00 | 0.09 | 0.00 | 79 | 1010.6 |
| 20260506060917 | 46 | 360 | 3.0 | 4.0 | 0.00 | 0.09 | 0.00 | 79 | 1010.6 |
| 20260506060809 | 46 | 344 | 3.0 | 4.0 | 0.00 | 0.09 | 0.00 | 80 | 1010.6 |
| 20260506060659 | 46 | 302 | 1.0 | 3.0 | 0.00 | 0.09 | 0.00 | 80 | 1010.6 |
| 20260506060608 | 46 | 302 | 1.0 | 3.0 | 0.00 | 0.09 | 0.00 | 81 | 1010.7 |
| 20260506060500 | 46 | 302 | 1.0 | 3.0 | 0.00 | 0.09 | 0.00 | 81 | 1010.7 |
| 20260506060414 | 46 | 302 | 1.0 | 3.0 | 0.00 | 0.09 | 0.00 | 81 | 1010.7 |
| 20260506060307 | 46 | 302 | 0.0 | 3.0 | 0.00 | 0.09 | 0.00 | 81 | 1010.7 |
| 20260506060216 | 46 | 302 | 0.0 | 3.0 | 0.00 | 0.09 | 0.00 | 82 | 1010.7 |
| 20260506060106 | 46 | 302 | 0.0 | 3.0 | 0.00 | 0.09 | 0.00 | 82 | 1010.6 |
| 20260506051415 | 47 | 302 | 0.0 | 0.0 | 0.00 | 0.09 | 0.00 | 89 | 1010.7 |
| 20260506051305 | 47 | 302 | 0.0 | 0.0 | 0.00 | 0.09 | 0.00 | 88 | 1010.7 |
| 20260506051216 | 47 | 302 | 0.0 | 0.0 | 0.00 | 0.09 | 0.00 | 88 | 1010.7 |
| 20260506051107 | 47 | 302 | 0.0 | 0.0 | 0.00 | 0.09 | 0.00 | 88 | 1010.6 |
| 20260506051017 | 47 | 302 | 0.0 | 0.0 | 0.00 | 0.09 | 0.00 | 88 | 1010.6 |
| 20260506050929 | 47 | 302 | 0.0 | 0.0 | 0.00 | 0.09 | 0.00 | 88 | 1010.6 |
| 20260506050845 | 47 | 302 | 0.0 | 0.0 | 0.00 | 0.09 | 0.00 | 88 | 1010.7 |
| 20260506050735 | 47 | 302 | 0.0 | 0.0 | 0.00 | 0.09 | 0.00 | 88 | 1010.6 |
| 20260506050605 | 47 | 302 | 0.0 | 0.0 | 0.00 | 0.09 | 0.00 | 88 | 1010.6 |
| 20260506050515 | 47 | 302 | 0.0 | 0.0 | 0.00 | 0.09 | 0.00 | 88 | 1010.6 |
| 20260506050407 | 47 | 302 | 0.0 | 0.0 | 0.00 | 0.09 | 0.00 | 88 | 1010.7 |
| 20260506050320 | 47 | 302 | 0.0 | 0.0 | 0.00 | 0.09 | 0.00 | 88 | 1010.8 |
| 20260506050209 | 47 | 302 | 0.0 | 0.0 | 0.00 | 0.09 | 0.00 | 88 | 1010.8 |
| 20260506050119 | 47 | 302 | 0.0 | 0.0 | 0.00 | 0.09 | 0.00 | 88 | 1010.7 |
| 20260506045100 | 47 | 302 | 0.0 | 0.0 | 0.00 | 0.09 | 0.00 | 87 | 1010.6 |
| 20260506045010 | 47 | 302 | 0.0 | 0.0 | 0.00 | 0.09 | 0.00 | 87 | 1010.6 |
| 20260506044905 | 47 | 302 | 0.0 | 0.0 | 0.00 | 0.09 | 0.00 | 87 | 1010.7 |
| 20260506044815 | 47 | 302 | 0.0 | 0.0 | 0.00 | 0.09 | 0.00 | 87 | 1010.7 |
| 20260506044706 | 47 | 302 | 0.0 | 1.0 | 0.00 | 0.09 | 0.00 | 87 | 1010.7 |
| 20260506044617 | 47 | 302 | 0.0 | 2.0 | 0.00 | 0.09 | 0.00 | 87 | 1010.7 |
| 20260506044539 | 47 | 302 | 0.0 | 2.0 | 0.00 | 0.09 | 0.00 | 88 | 1010.7 |
| 20260506044410 | 47 | 302 | 0.0 | 2.0 | 0.00 | 0.09 | 0.00 | 88 | 1010.6 |
| 20260506044300 | 47 | 302 | 0.0 | 2.0 | 0.00 | 0.09 | 0.00 | 88 | 1010.7 |
| 20260506044212 | 47 | 302 | 0.0 | 2.0 | 0.00 | 0.09 | 0.00 | 88 | 1010.7 |
| 20260506044107 | 47 | 302 | 0.0 | 2.0 | 0.00 | 0.09 | 0.00 | 88 | 1010.7 |
| 20260506043958 | 47 | 302 | 0.0 | 2.0 | 0.00 | 0.09 | 0.00 | 88 | 1010.6 |
| 20260506043909 | 47 | 302 | 1.0 | 2.0 | 0.00 | 0.09 | 0.00 | 88 | 1010.7 |
| 20260506043759 | 47 | 302 | 1.0 | 2.0 | 0.00 | 0.09 | 0.00 | 87 | 1010.5 |
| 20260506043710 | 47 | 302 | 1.0 | 2.0 | 0.00 | 0.09 | 0.00 | 87 | 1010.4 |
| 20260506043600 | 47 | 302 | 0.0 | 2.0 | 0.00 | 0.09 | 0.00 | 86 | 1010.5 |
| 20260506043510 | 47 | 302 | 0.0 | 1.0 | 0.00 | 0.09 | 0.00 | 86 | 1010.5 |
| 20260506043402 | 47 | 302 | 0.0 | 2.0 | 0.00 | 0.09 | 0.00 | 86 | 1010.5 |
| 20260506043314 | 47 | 302 | 0.0 | 2.0 | 0.00 | 0.09 | 0.00 | 87 | 1010.6 |
| 20260506043208 | 47 | 302 | 0.0 | 2.0 | 0.00 | 0.09 | 0.00 | 87 | 1010.6 |
| 20260506043119 | 47 | 302 | 0.0 | 2.0 | 0.00 | 0.09 | 0.00 | 87 | 1010.6 |
| 20260506043040 | 47 | 302 | 0.0 | 2.0 | 0.00 | 0.09 | 0.00 | 87 | 1010.6 |
| 20260506042929 | 47 | 302 | 0.0 | 2.0 | 0.00 | 0.09 | 0.00 | 87 | 1010.6 |
| 20260506042759 | 47 | 302 | 0.0 | 2.0 | 0.00 | 0.09 | 0.00 | 87 | 1010.5 |
| 20260506042709 | 47 | 302 | 0.0 | 2.0 | 0.00 | 0.09 | 0.00 | 88 | 1010.5 |
| 20260506042620 | 47 | 302 | 0.0 | 2.0 | 0.00 | 0.09 | 0.00 | 88 | 1010.5 |
| 20260506042532 | 47 | 302 | 0.0 | 3.0 | 0.00 | 0.09 | 0.00 | 88 | 1010.4 |
| 20260506042401 | 47 | 302 | 0.0 | 3.0 | 0.00 | 0.09 | 0.00 | 88 | 1010.5 |
| 20260506042311 | 47 | 302 | 0.0 | 3.0 | 0.00 | 0.09 | 0.00 | 88 | 1010.5 |
| 20260506042206 | 47 | 302 | 1.0 | 3.0 | 0.00 | 0.09 | 0.00 | 88 | 1010.5 |
| 20260506042116 | 47 | 302 | 1.0 | 3.0 | 0.00 | 0.09 | 0.00 | 88 | 1010.6 |
| 20260506042008 | 47 | 302 | 1.0 | 3.0 | 0.00 | 0.09 | 0.00 | 88 | 1010.4 |
| 20260506041859 | 47 | 302 | 1.0 | 3.0 | 0.00 | 0.09 | 0.00 | 88 | 1010.4 |
| 20260506041810 | 47 | 302 | 2.0 | 3.0 | 0.00 | 0.09 | 0.00 | 89 | 1010.3 |
| 20260506041700 | 47 | 302 | 2.0 | 3.0 | 0.00 | 0.09 | 0.00 | 88 | 1010.2 |
| 20260506041611 | 47 | 302 | 1.0 | 3.0 | 0.00 | 0.09 | 0.00 | 88 | 1010.2 |
| 20260506041533 | 47 | 302 | 1.0 | 3.0 | 0.00 | 0.09 | 0.00 | 88 | 1010.2 |
| 20260506041408 | 47 | 302 | 0.0 | 3.0 | 0.00 | 0.09 | 0.00 | 89 | 1010.1 |
| 20260506041318 | 47 | 302 | 0.0 | 3.0 | 0.00 | 0.09 | 0.00 | 88 | 1010.1 |
| 20260506041209 | 47 | 302 | 1.0 | 3.0 | 0.00 | 0.09 | 0.00 | 88 | 1010.1 |
| 20260506041100 | 47 | 302 | 1.0 | 3.0 | 0.00 | 0.09 | 0.00 | 89 | 1010.1 |
| 20260506041011 | 47 | 302 | 1.0 | 3.0 | 0.00 | 0.09 | 0.00 | 89 | 1010.1 |
| 20260506040902 | 47 | 302 | 1.0 | 3.0 | 0.00 | 0.09 | 0.00 | 89 | 1010.1 |
| 20260506040812 | 47 | 302 | 1.0 | 2.0 | 0.00 | 0.09 | 0.00 | 89 | 1010.2 |
| 20260506040723 | 47 | 302 | 1.0 | 2.0 | 0.00 | 0.09 | 0.00 | 89 | 1010.2 |
| 20260506040633 | 47 | 302 | 1.0 | 3.0 | 0.00 | 0.09 | 0.00 | 89 | 1010.0 |
| 20260506040545 | 47 | 302 | 1.0 | 3.0 | 0.00 | 0.09 | 0.00 | 89 | 1010.0 |
| 20260506040417 | 47 | 302 | 1.0 | 3.0 | 0.00 | 0.09 | 0.00 | 89 | 1010.0 |
| 20260506040310 | 47 | 302 | 1.0 | 3.0 | 0.00 | 0.09 | 0.00 | 89 | 1010.1 |
| 20260506040218 | 47 | 302 | 1.0 | 3.0 | 0.00 | 0.10 | 0.09 | 89 | 1010.1 |
| 20260506040110 | 47 | 302 | 2.0 | 3.0 | 0.00 | 0.10 | 0.09 | 88 | 1010.0 |
| 20260506040033 | 47 | 302 | 2.0 | 3.0 | 0.00 | 0.10 | 0.09 | 88 | 1010.0 |
| 20260506035924 | 47 | 302 | 2.0 | 3.0 | 0.00 | 0.10 | 0.09 | 88 | 1010.1 |
| 20260506035826 | 47 | 302 | 2.0 | 3.0 | 0.00 | 0.10 | 0.09 | 88 | 1010.1 |
| 20260506035716 | 47 | 302 | 1.0 | 3.0 | 0.00 | 0.10 | 0.09 | 88 | 1010.0 |
| 20260506035606 | 47 | 302 | 0.0 | 0.0 | 0.00 | 0.10 | 0.09 | 87 | 1010.0 |
| 20260506035501 | 47 | 302 | 0.0 | 0.0 | 0.00 | 0.10 | 0.09 | 87 | 1010.0 |
| 20260506035413 | 47 | 302 | 0.0 | 0.0 | 0.00 | 0.10 | 0.09 | 87 | 1009.9 |
| 20260506035324 | 47 | 302 | 0.0 | 0.0 | 0.00 | 0.10 | 0.09 | 87 | 1009.9 |
| 20260506035214 | 47 | 302 | 0.0 | 0.0 | 0.00 | 0.10 | 0.09 | 87 | 1009.9 |
| 20260506035104 | 47 | 302 | 0.0 | 0.0 | 0.00 | 0.10 | 0.09 | 87 | 1010.0 |
| 20260506035014 | 47 | 302 | 0.0 | 0.0 | 0.00 | 0.10 | 0.09 | 86 | 1010.0 |
| 20260506034926 | 47 | 302 | 0.0 | 0.0 | 0.00 | 0.10 | 0.09 | 86 | 1009.8 |
| 20260506034836 | 48 | 302 | 0.0 | 0.0 | 0.00 | 0.10 | 0.09 | 86 | 1009.8 |
| 20260506034707 | 48 | 302 | 0.0 | 0.0 | 0.00 | 0.10 | 0.09 | 86 | 1010.0 |
| 20260506034617 | 48 | 302 | 0.0 | 0.0 | 0.00 | 0.10 | 0.09 | 86 | 1009.9 |
| 20260506034524 | 48 | 302 | 0.0 | 0.0 | 0.00 | 0.10 | 0.09 | 86 | 1009.9 |
| 20260506034413 | 48 | 302 | 0.0 | 0.0 | 0.00 | 0.10 | 0.09 | 86 | 1009.9 |
| 20260506034304 | 48 | 302 | 0.0 | 0.0 | 0.00 | 0.10 | 0.09 | 86 | 1010.1 |
| 20260506034215 | 48 | 302 | 0.0 | 0.0 | 0.00 | 0.10 | 0.09 | 85 | 1010.1 |
| 20260506034106 | 48 | 302 | 0.0 | 0.0 | 0.00 | 0.10 | 0.09 | 85 | 1010.0 |
| 20260506034018 | 48 | 302 | 0.0 | 0.0 | 0.00 | 0.10 | 0.09 | 85 | 1010.0 |
| 20260506033909 | 48 | 302 | 0.0 | 0.0 | 0.00 | 0.10 | 0.09 | 85 | 1010.0 |
| 20260506033820 | 48 | 302 | 0.0 | 0.0 | 0.00 | 0.10 | 0.09 | 85 | 1010.0 |
| 20260506033709 | 48 | 302 | 0.0 | 0.0 | 0.00 | 0.10 | 0.09 | 85 | 1010.1 |
| 20260506033605 | 48 | 302 | 0.0 | 0.0 | 0.00 | 0.10 | 0.09 | 85 | 1010.0 |
| 20260506033514 | 48 | 302 | 0.0 | 0.0 | 0.00 | 0.10 | 0.09 | 85 | 1010.0 |
| 20260506033406 | 48 | 302 | 0.0 | 0.0 | 0.00 | 0.10 | 0.09 | 85 | 1010.1 |
| 20260506033319 | 48 | 302 | 0.0 | 0.0 | 0.00 | 0.10 | 0.09 | 85 | 1010.1 |
| 20260506033208 | 48 | 302 | 0.0 | 0.0 | 0.00 | 0.10 | 0.09 | 85 | 1010.1 |
| 20260506033058 | 48 | 302 | 0.0 | 0.0 | 0.00 | 0.10 | 0.09 | 85 | 1010.0 |
| 20260506033021 | 48 | 302 | 0.0 | 0.0 | 0.00 | 0.10 | 0.09 | 85 | 1010.2 |
| 20260506032910 | 48 | 302 | 0.0 | 0.0 | 0.00 | 0.10 | 0.09 | 85 | 1010.1 |
| 20260506032821 | 48 | 302 | 0.0 | 0.0 | 0.00 | 0.10 | 0.09 | 85 | 1010.1 |
| 20260506032732 | 48 | 302 | 0.0 | 0.0 | 0.00 | 0.10 | 0.09 | 85 | 1010.0 |
| 20260506032608 | 48 | 302 | 0.0 | 0.0 | 0.00 | 0.10 | 0.09 | 85 | 1010.2 |
| 20260506032459 | 48 | 302 | 0.0 | 0.0 | 0.00 | 0.10 | 0.09 | 85 | 1010.2 |
| 20260506032410 | 48 | 302 | 0.0 | 0.0 | 0.00 | 0.10 | 0.09 | 85 | 1010.2 |
| 20260506032321 | 48 | 302 | 0.0 | 0.0 | 0.00 | 0.10 | 0.09 | 85 | 1010.2 |
| 20260506032211 | 48 | 302 | 0.0 | 0.0 | 0.00 | 0.10 | 0.09 | 85 | 1010.2 |
| 20260506032103 | 48 | 302 | 0.0 | 0.0 | 0.00 | 0.10 | 0.09 | 85 | 1010.2 |
| 20260506032013 | 48 | 302 | 0.0 | 0.0 | 0.00 | 0.10 | 0.09 | 85 | 1010.2 |
| 20260506031903 | 48 | 302 | 0.0 | 0.0 | 0.00 | 0.10 | 0.09 | 85 | 1010.2 |
| 20260506031815 | 48 | 302 | 0.0 | 0.0 | 0.00 | 0.10 | 0.09 | 85 | 1010.2 |
| 20260506031731 | 48 | 302 | 0.0 | 0.0 | 0.00 | 0.10 | 0.09 | 85 | 1010.2 |
| 20260506031622 | 48 | 302 | 0.0 | 0.0 | 0.00 | 0.10 | 0.09 | 85 | 1010.2 |
| 20260506031544 | 48 | 302 | 0.0 | 0.0 | 0.00 | 0.10 | 0.09 | 85 | 1010.1 |
| 20260506031413 | 48 | 302 | 0.0 | 0.0 | 0.00 | 0.10 | 0.09 | 85 | 1010.0 |
| 20260506031304 | 48 | 302 | 0.0 | 0.0 | 0.00 | 0.10 | 0.09 | 85 | 1010.0 |
| 20260506031215 | 48 | 302 | 0.0 | 0.0 | 0.00 | 0.10 | 0.09 | 85 | 1010.0 |
| 20260506031105 | 48 | 302 | 0.0 | 0.0 | 0.00 | 0.10 | 0.09 | 84 | 1010.1 |
| 20260506031016 | 48 | 302 | 0.0 | 0.0 | 0.00 | 0.10 | 0.09 | 84 | 1010.1 |
| 20260506030906 | 48 | 302 | 0.0 | 0.0 | 0.00 | 0.10 | 0.09 | 84 | 1010.0 |
| 20260506030800 | 48 | 302 | 0.0 | 0.0 | 0.00 | 0.10 | 0.09 | 84 | 1010.0 |
| 20260506030712 | 48 | 302 | 0.0 | 0.0 | 0.00 | 0.10 | 0.09 | 84 | 1010.0 |
| 20260506030623 | 48 | 302 | 0.0 | 0.0 | 0.00 | 0.10 | 0.09 | 84 | 1010.0 |
| 20260506030535 | 48 | 302 | 0.0 | 0.0 | 0.00 | 0.10 | 0.09 | 84 | 1009.9 |
| 20260506030424 | 48 | 302 | 0.0 | 0.0 | 0.00 | 0.10 | 0.09 | 84 | 1010.0 |
| 20260506030336 | 48 | 302 | 0.0 | 0.0 | 0.00 | 0.10 | 0.09 | 84 | 1009.9 |
| 20260506030204 | 48 | 302 | 0.0 | 0.0 | 0.00 | 0.10 | 0.09 | 84 | 1010.0 |
| 20260506030115 | 48 | 302 | 0.0 | 0.0 | 0.00 | 0.10 | 0.09 | 84 | 1009.9 |
| 20260506030037 | 48 | 302 | 0.0 | 0.0 | 0.00 | 0.10 | 0.09 | 84 | 1010.0 |
| 20260506025908 | 48 | 302 | 0.0 | 0.0 | 0.00 | 0.10 | 0.09 | 84 | 1009.9 |
| 20260506025803 | 48 | 302 | 0.0 | 0.0 | 0.00 | 0.10 | 0.09 | 84 | 1010.0 |
| 20260506025715 | 48 | 302 | 0.0 | 0.0 | 0.00 | 0.10 | 0.09 | 84 | 1009.9 |
| 20260506025606 | 48 | 302 | 0.0 | 0.0 | 0.00 | 0.10 | 0.09 | 84 | 1010.0 |
| 20260506025458 | 48 | 302 | 0.0 | 0.0 | 0.00 | 0.10 | 0.09 | 84 | 1010.0 |
| 20260506025408 | 48 | 302 | 0.0 | 0.0 | 0.00 | 0.10 | 0.09 | 84 | 1009.9 |
| 20260506025259 | 48 | 302 | 0.0 | 0.0 | 0.00 | 0.10 | 0.09 | 84 | 1009.9 |
| 20260506025210 | 48 | 302 | 0.0 | 0.0 | 0.00 | 0.10 | 0.09 | 84 | 1009.9 |
| 20260506025101 | 48 | 302 | 0.0 | 0.0 | 0.00 | 0.10 | 0.09 | 84 | 1010.0 |
| 20260506025013 | 48 | 302 | 0.0 | 0.0 | 0.00 | 0.10 | 0.09 | 84 | 1010.0 |
| 20260506024909 | 48 | 302 | 0.0 | 0.0 | 0.00 | 0.10 | 0.09 | 84 | 1009.9 |
| 20260506024759 | 48 | 302 | 0.0 | 0.0 | 0.00 | 0.10 | 0.09 | 83 | 1009.8 |
| 20260506024710 | 48 | 302 | 0.0 | 0.0 | 0.00 | 0.10 | 0.09 | 83 | 1009.9 |
| 20260506024600 | 48 | 302 | 0.0 | 0.0 | 0.00 | 0.10 | 0.09 | 83 | 1009.9 |
| 20260506024522 | 48 | 302 | 0.0 | 0.0 | 0.00 | 0.10 | 0.09 | 83 | 1009.9 |
| 20260506024412 | 48 | 302 | 0.0 | 0.0 | 0.00 | 0.10 | 0.09 | 83 | 1009.9 |
| 20260506024324 | 48 | 302 | 0.0 | 0.0 | 0.00 | 0.10 | 0.09 | 83 | 1009.9 |
| 20260506024234 | 48 | 302 | 0.0 | 0.0 | 0.00 | 0.10 | 0.09 | 83 | 1009.9 |
| 20260506024105 | 48 | 302 | 0.0 | 0.0 | 0.00 | 0.10 | 0.09 | 84 | 1009.9 |
| 20260506023959 | 48 | 302 | 0.0 | 0.0 | 0.00 | 0.10 | 0.09 | 84 | 1009.9 |
| 20260506023911 | 48 | 302 | 0.0 | 0.0 | 0.00 | 0.10 | 0.09 | 84 | 1009.9 |
| 20260506023822 | 48 | 302 | 0.0 | 0.0 | 0.00 | 0.10 | 0.09 | 84 | 1009.8 |
| 20260506023714 | 48 | 302 | 0.0 | 0.0 | 0.00 | 0.10 | 0.09 | 83 | 1009.8 |
| 20260506023604 | 48 | 302 | 0.0 | 0.0 | 0.00 | 0.10 | 0.09 | 83 | 1009.7 |
| 20260506023516 | 48 | 302 | 0.0 | 0.0 | 0.00 | 0.10 | 0.09 | 83 | 1009.8 |
| 20260506023406 | 48 | 302 | 0.0 | 0.0 | 0.00 | 0.10 | 0.09 | 83 | 1009.7 |
| 20260506023318 | 48 | 302 | 0.0 | 0.0 | 0.00 | 0.10 | 0.09 | 83 | 1009.7 |
| 20260506023206 | 48 | 302 | 0.0 | 0.0 | 0.00 | 0.10 | 0.09 | 83 | 1009.7 |
| 20260506023100 | 48 | 302 | 0.0 | 0.0 | 0.00 | 0.10 | 0.09 | 83 | 1009.7 |
| 20260506023023 | 48 | 302 | 0.0 | 0.0 | 0.00 | 0.10 | 0.09 | 83 | 1009.6 |
| 20260506022914 | 49 | 302 | 0.0 | 0.0 | 0.00 | 0.10 | 0.09 | 83 | 1009.6 |
| 20260506022804 | 49 | 302 | 0.0 | 0.0 | 0.00 | 0.10 | 0.09 | 83 | 1009.7 |
| 20260506022715 | 48 | 302 | 0.0 | 0.0 | 0.00 | 0.10 | 0.09 | 82 | 1009.8 |
| 20260506022606 | 48 | 302 | 0.0 | 0.0 | 0.00 | 0.10 | 0.09 | 82 | 1009.7 |
| 20260506022518 | 48 | 302 | 0.0 | 0.0 | 0.00 | 0.10 | 0.09 | 82 | 1009.7 |
| 20260506022408 | 49 | 302 | 0.0 | 0.0 | 0.00 | 0.10 | 0.09 | 82 | 1009.6 |
| 20260506022259 | 48 | 302 | 0.0 | 0.0 | 0.00 | 0.10 | 0.09 | 82 | 1009.7 |
| 20260506022215 | 49 | 302 | 0.0 | 0.0 | 0.00 | 0.10 | 0.09 | 82 | 1009.7 |
| 20260506022106 | 48 | 302 | 0.0 | 0.0 | 0.00 | 0.10 | 0.09 | 82 | 1009.8 |
| 20260506022017 | 49 | 302 | 0.0 | 0.0 | 0.00 | 0.10 | 0.09 | 82 | 1009.8 |
| 20260506021907 | 48 | 302 | 0.0 | 0.0 | 0.00 | 0.10 | 0.09 | 81 | 1009.6 |
| 20260506021759 | 49 | 302 | 0.0 | 0.0 | 0.00 | 0.10 | 0.09 | 81 | 1009.7 |
| 20260506021710 | 49 | 302 | 0.0 | 0.0 | 0.00 | 0.10 | 0.09 | 82 | 1009.7 |
| 20260506021622 | 49 | 302 | 0.0 | 0.0 | 0.00 | 0.10 | 0.09 | 82 | 1009.7 |
| 20260506021544 | 49 | 302 | 0.0 | 0.0 | 0.00 | 0.10 | 0.09 | 82 | 1009.7 |
| 20260506021433 | 49 | 302 | 0.0 | 0.0 | 0.00 | 0.10 | 0.09 | 82 | 1009.7 |
| 20260506021325 | 49 | 302 | 0.0 | 0.0 | 0.00 | 0.10 | 0.09 | 82 | 1009.7 |
| 20260506021218 | 49 | 302 | 0.0 | 0.0 | 0.00 | 0.10 | 0.09 | 82 | 1009.7 |
| 20260506021129 | 49 | 302 | 0.0 | 0.0 | 0.00 | 0.10 | 0.09 | 82 | 1009.7 |
| 20260506021040 | 49 | 302 | 0.0 | 0.0 | 0.00 | 0.10 | 0.09 | 82 | 1009.7 |
| 20260506020931 | 49 | 302 | 0.0 | 0.0 | 0.00 | 0.10 | 0.09 | 81 | 1009.6 |
| 20260506020802 | 49 | 302 | 0.0 | 0.0 | 0.00 | 0.10 | 0.09 | 81 | 1009.6 |
| 20260506020712 | 49 | 302 | 0.0 | 0.0 | 0.00 | 0.10 | 0.09 | 81 | 1009.6 |
| 20260506020602 | 49 | 302 | 0.0 | 0.0 | 0.00 | 0.10 | 0.09 | 81 | 1009.6 |
| 20260506020513 | 49 | 302 | 0.0 | 0.0 | 0.00 | 0.10 | 0.09 | 81 | 1009.6 |
| 20260506020424 | 49 | 302 | 0.0 | 0.0 | 0.00 | 0.10 | 0.09 | 81 | 1009.7 |
| 20260506020336 | 49 | 302 | 0.0 | 0.0 | 0.00 | 0.10 | 0.09 | 81 | 1009.7 |
| 20260506020210 | 49 | 302 | 0.0 | 0.0 | 0.00 | 0.32 | 0.09 | 80 | 1009.7 |
| 20260506020100 | 49 | 302 | 0.0 | 0.0 | 0.00 | 0.32 | 0.09 | 80 | 1009.6 |
| 20260506020023 | 49 | 302 | 0.0 | 0.0 | 0.00 | 0.32 | 0.09 | 80 | 1009.7 |
| 20260506015913 | 49 | 302 | 0.0 | 0.0 | 0.00 | 0.32 | 0.09 | 80 | 1009.7 |
| 20260506015823 | 49 | 302 | 0.0 | 0.0 | 0.00 | 0.32 | 0.09 | 79 | 1009.6 |
| 20260506015733 | 49 | 302 | 0.0 | 0.0 | 0.00 | 0.32 | 0.09 | 79 | 1009.7 |
| 20260506015622 | 49 | 302 | 0.0 | 0.0 | 0.00 | 0.32 | 0.09 | 79 | 1009.6 |
| 20260506015512 | 49 | 302 | 0.0 | 0.0 | 0.00 | 0.32 | 0.09 | 79 | 1009.6 |
| 20260506015402 | 49 | 302 | 0.0 | 0.0 | 0.00 | 0.32 | 0.09 | 79 | 1009.6 |
| 20260506015313 | 49 | 302 | 0.0 | 0.0 | 0.00 | 0.32 | 0.09 | 78 | 1009.6 |
| 20260506015223 | 49 | 302 | 0.0 | 0.0 | 0.00 | 0.32 | 0.09 | 78 | 1009.6 |
| 20260506015137 | 49 | 302 | 0.0 | 0.0 | 0.00 | 0.32 | 0.09 | 78 | 1009.6 |
| 20260506015047 | 49 | 302 | 0.0 | 0.0 | 0.00 | 0.32 | 0.09 | 78 | 1009.6 |
| 20260506014938 | 49 | 302 | 0.0 | 0.0 | 0.00 | 0.32 | 0.09 | 77 | 1009.6 |
| 20260506014808 | 49 | 302 | 0.0 | 0.0 | 0.00 | 0.32 | 0.09 | 78 | 1009.6 |
| 20260506014659 | 49 | 302 | 0.0 | 0.0 | 0.00 | 0.32 | 0.09 | 78 | 1009.5 |
| 20260506014612 | 49 | 302 | 0.0 | 0.0 | 0.00 | 0.32 | 0.09 | 78 | 1009.5 |
| 20260506014533 | 49 | 302 | 0.0 | 0.0 | 0.00 | 0.32 | 0.09 | 78 | 1009.5 |
| 20260506014404 | 49 | 302 | 0.0 | 0.0 | 0.00 | 0.32 | 0.09 | 78 | 1009.4 |
| 20260506014315 | 49 | 302 | 0.0 | 0.0 | 0.00 | 0.32 | 0.09 | 78 | 1009.4 |
| 20260506014226 | 49 | 302 | 0.0 | 0.0 | 0.00 | 0.32 | 0.09 | 78 | 1009.5 |
| 20260506014140 | 49 | 302 | 0.0 | 0.0 | 0.00 | 0.32 | 0.09 | 78 | 1009.4 |
| 20260506014031 | 49 | 302 | 0.0 | 0.0 | 0.00 | 0.32 | 0.09 | 78 | 1009.3 |
| 20260506013942 | 49 | 302 | 0.0 | 0.0 | 0.00 | 0.32 | 0.09 | 78 | 1009.4 |
| 20260506013831 | 49 | 302 | 0.0 | 0.0 | 0.00 | 0.32 | 0.09 | 79 | 1009.3 |
| 20260506013723 | 49 | 302 | 0.0 | 0.0 | 0.00 | 0.32 | 0.09 | 79 | 1009.3 |
| 20260506013613 | 49 | 302 | 0.0 | 0.0 | 0.00 | 0.32 | 0.09 | 79 | 1009.2 |
| 20260506013525 | 49 | 302 | 0.0 | 0.0 | 0.00 | 0.32 | 0.09 | 79 | 1009.2 |
| 20260506013415 | 49 | 302 | 0.0 | 0.0 | 0.00 | 0.32 | 0.09 | 79 | 1009.2 |
| 20260506013308 | 49 | 302 | 0.0 | 0.0 | 0.00 | 0.32 | 0.09 | 78 | 1009.1 |
| 20260506013217 | 49 | 302 | 0.0 | 0.0 | 0.00 | 0.32 | 0.09 | 78 | 1009.1 |
| 20260506013119 | 49 | 302 | 0.0 | 0.0 | 0.00 | 0.32 | 0.09 | 77 | 1009.0 |
| 20260506013024 | 49 | 302 | 0.0 | 0.0 | 0.00 | 0.32 | 0.09 | 76 | 1009.0 |
| 20260506012914 | 49 | 302 | 0.0 | 0.0 | 0.00 | 0.32 | 0.09 | 75 | 1009.1 |
| 20260506012806 | 49 | 302 | 0.0 | 0.0 | 0.00 | 0.32 | 0.09 | 75 | 1009.1 |
| 20260506012716 | 49 | 302 | 0.0 | 0.0 | 0.00 | 0.32 | 0.09 | 74 | 1009.2 |
| 20260506012608 | 49 | 302 | 0.0 | 0.0 | 0.00 | 0.32 | 0.09 | 74 | 1009.3 |
| 20260506012519 | 49 | 302 | 0.0 | 0.0 | 0.00 | 0.32 | 0.09 | 74 | 1009.4 |
| 20260506012430 | 49 | 302 | 0.0 | 0.0 | 0.00 | 0.32 | 0.09 | 74 | 1009.3 |
| 20260506012300 | 49 | 302 | 0.0 | 0.0 | 0.00 | 0.32 | 0.09 | 74 | 1009.2 |
| 20260506012210 | 49 | 302 | 0.0 | 0.0 | 0.00 | 0.32 | 0.09 | 74 | 1009.2 |
| 20260506012122 | 49 | 302 | 0.0 | 0.0 | 0.00 | 0.32 | 0.09 | 74 | 1009.1 |
| 20260506012037 | 50 | 302 | 0.0 | 0.0 | 0.00 | 0.32 | 0.09 | 74 | 1009.0 |
| 20260506011908 | 50 | 302 | 0.0 | 0.0 | 0.00 | 0.32 | 0.09 | 74 | 1008.9 |
| 20260506011758 | 50 | 302 | 0.0 | 0.0 | 0.00 | 0.32 | 0.09 | 73 | 1008.9 |
| 20260506011710 | 50 | 302 | 0.0 | 0.0 | 0.00 | 0.32 | 0.09 | 73 | 1008.9 |
| 20260506011600 | 50 | 302 | 0.0 | 0.0 | 0.00 | 0.32 | 0.09 | 73 | 1008.9 |
| 20260506011523 | 50 | 302 | 0.0 | 0.0 | 0.00 | 0.32 | 0.09 | 73 | 1009.1 |
| 20260506011412 | 50 | 302 | 0.0 | 0.0 | 0.00 | 0.32 | 0.09 | 73 | 1009.0 |
| 20260506011304 | 50 | 302 | 0.0 | 0.0 | 0.00 | 0.32 | 0.09 | 73 | 1009.0 |
| 20260506011214 | 50 | 302 | 0.0 | 0.0 | 0.00 | 0.32 | 0.09 | 73 | 1009.0 |
| 20260506011128 | 50 | 302 | 0.0 | 0.0 | 0.00 | 0.32 | 0.09 | 73 | 1009.0 |
| 20260506011039 | 50 | 302 | 0.0 | 0.0 | 0.00 | 0.32 | 0.09 | 73 | 1008.9 |
| 20260506010909 | 50 | 302 | 0.0 | 0.0 | 0.00 | 0.32 | 0.09 | 73 | 1008.9 |
| 20260506010821 | 50 | 302 | 0.0 | 0.0 | 0.00 | 0.32 | 0.09 | 73 | 1008.8 |
| 20260506010731 | 50 | 302 | 0.0 | 0.0 | 0.00 | 0.32 | 0.09 | 73 | 1008.8 |
| 20260506010621 | 50 | 302 | 0.0 | 0.0 | 0.00 | 0.32 | 0.09 | 73 | 1008.7 |
| 20260506010532 | 50 | 302 | 0.0 | 0.0 | 0.00 | 0.32 | 0.09 | 73 | 1008.7 |
| 20260506010403 | 50 | 302 | 0.0 | 0.0 | 0.00 | 0.32 | 0.09 | 73 | 1008.8 |
| 20260506010315 | 50 | 302 | 0.0 | 0.0 | 0.00 | 0.32 | 0.09 | 73 | 1008.7 |
| 20260506010224 | 50 | 302 | 0.0 | 0.0 | 0.00 | 0.32 | 0.09 | 73 | 1008.8 |
| 20260506010134 | 50 | 302 | 0.0 | 0.0 | 0.00 | 0.32 | 0.09 | 73 | 1008.8 |
| 20260506010039 | 50 | 302 | 0.0 | 0.0 | 0.00 | 0.32 | 0.09 | 73 | 1008.8 |
| 20260506005928 | 50 | 302 | 0.0 | 0.0 | 0.00 | 0.32 | 0.09 | 73 | 1008.7 |
| 20260506005818 | 50 | 302 | 0.0 | 0.0 | 0.00 | 0.32 | 0.09 | 73 | 1008.8 |
| 20260506005707 | 50 | 302 | 0.0 | 0.0 | 0.00 | 0.32 | 0.09 | 72 | 1008.7 |
| 20260506005559 | 50 | 302 | 0.0 | 0.0 | 0.00 | 0.32 | 0.09 | 70 | 1008.7 |
| 20260506005510 | 50 | 302 | 0.0 | 0.0 | 0.00 | 0.32 | 0.09 | 70 | 1008.7 |
| 20260506005401 | 50 | 302 | 0.0 | 0.0 | 0.00 | 0.32 | 0.09 | 69 | 1008.8 |
| 20260506005311 | 50 | 302 | 0.0 | 0.0 | 0.00 | 0.32 | 0.09 | 68 | 1008.7 |
| 20260506005201 | 50 | 302 | 0.0 | 0.0 | 0.00 | 0.32 | 0.09 | 67 | 1008.7 |
| 20260506005117 | 50 | 302 | 0.0 | 0.0 | 0.00 | 0.32 | 0.09 | 63 | 1008.7 |
| 20260506005028 | 50 | 302 | 0.0 | 0.0 | 0.00 | 0.32 | 0.09 | 63 | 1008.7 |
| 20260506004940 | 50 | 302 | 0.0 | 0.0 | 0.00 | 0.32 | 0.09 | 65 | 1008.6 |
| 20260506004830 | 50 | 302 | 0.0 | 0.0 | 0.00 | 0.32 | 0.09 | 65 | 1008.6 |
| 20260506004701 | 50 | 302 | 0.0 | 0.0 | 0.00 | 0.32 | 0.09 | 64 | 1008.8 |
| 20260506004611 | 50 | 302 | 0.0 | 0.0 | 0.00 | 0.32 | 0.09 | 63 | 1008.7 |
| 20260506004531 | 50 | 302 | 0.0 | 0.0 | 0.00 | 0.32 | 0.09 | 63 | 1008.9 |
| 20260506004402 | 50 | 302 | 0.0 | 0.0 | 0.00 | 0.32 | 0.09 | 62 | 1008.9 |
| 20260506004312 | 50 | 302 | 0.0 | 0.0 | 0.00 | 0.32 | 0.09 | 62 | 1008.9 |
| 20260506004205 | 50 | 302 | 0.0 | 0.0 | 0.00 | 0.32 | 0.09 | 63 | 1008.8 |
| 20260506004119 | 50 | 302 | 0.0 | 0.0 | 0.00 | 0.32 | 0.09 | 64 | 1008.9 |
| 20260506004009 | 50 | 302 | 0.0 | 0.0 | 0.00 | 0.32 | 0.09 | 63 | 1008.9 |
| 20260506003859 | 50 | 302 | 0.0 | 0.0 | 0.00 | 0.32 | 0.09 | 61 | 1008.8 |
| 20260506003811 | 50 | 302 | 0.0 | 0.0 | 0.00 | 0.32 | 0.09 | 61 | 1008.8 |
| 20260506003724 | 50 | 302 | 0.0 | 0.0 | 0.00 | 0.32 | 0.09 | 61 | 1008.8 |
| 20260506003636 | 50 | 302 | 0.0 | 0.0 | 0.00 | 0.32 | 0.09 | 61 | 1008.8 |
| 20260506003505 | 50 | 302 | 0.0 | 0.0 | 0.00 | 0.32 | 0.09 | 61 | 1008.8 |
| 20260506003416 | 50 | 302 | 0.0 | 0.0 | 0.00 | 0.32 | 0.09 | 62 | 1008.7 |
| 20260506003308 | 51 | 302 | 0.0 | 0.0 | 0.00 | 0.32 | 0.09 | 63 | 1008.8 |
| 20260506003201 | 51 | 302 | 0.0 | 0.0 | 0.00 | 0.32 | 0.09 | 65 | 1008.8 |
| 20260506003112 | 51 | 302 | 0.0 | 0.0 | 0.00 | 0.32 | 0.09 | 66 | 1008.7 |
| 20260506003034 | 51 | 302 | 0.0 | 0.0 | 0.00 | 0.32 | 0.09 | 66 | 1008.8 |
| 20260506002903 | 51 | 302 | 0.0 | 0.0 | 0.00 | 0.32 | 0.09 | 65 | 1008.9 |
| 20260506002814 | 51 | 302 | 0.0 | 0.0 | 0.00 | 0.32 | 0.09 | 65 | 1008.9 |
| 20260506002705 | 51 | 302 | 0.0 | 0.0 | 0.00 | 0.32 | 0.09 | 65 | 1008.8 |
| 20260506002615 | 51 | 302 | 0.0 | 0.0 | 0.00 | 0.32 | 0.09 | 66 | 1008.8 |
| 20260506002527 | 51 | 302 | 0.0 | 0.0 | 0.00 | 0.32 | 0.09 | 62 | 1008.8 |
| 20260506002416 | 51 | 302 | 0.0 | 0.0 | 0.00 | 0.32 | 0.09 | 63 | 1008.9 |
| 20260506002307 | 51 | 302 | 0.0 | 0.0 | 0.00 | 0.32 | 0.09 | 62 | 1008.9 |
| 20260506002223 | 51 | 302 | 0.0 | 0.0 | 0.00 | 0.32 | 0.09 | 62 | 1008.9 |
| 20260506002113 | 51 | 302 | 0.0 | 0.0 | 0.00 | 0.32 | 0.09 | 62 | 1008.8 |
| 20260506002004 | 51 | 302 | 0.0 | 0.0 | 0.00 | 0.32 | 0.09 | 59 | 1008.8 |
| 20260506001915 | 51 | 302 | 0.0 | 0.0 | 0.00 | 0.32 | 0.09 | 58 | 1008.7 |
| 20260506001804 | 51 | 302 | 0.0 | 0.0 | 0.00 | 0.32 | 0.09 | 58 | 1008.7 |
| 20260506001716 | 51 | 302 | 0.0 | 0.0 | 0.00 | 0.32 | 0.09 | 59 | 1008.8 |
| 20260506001607 | 51 | 302 | 0.0 | 0.0 | 0.00 | 0.32 | 0.09 | 59 | 1008.7 |
| 20260506001530 | 51 | 302 | 0.0 | 0.0 | 0.00 | 0.32 | 0.09 | 58 | 1008.7 |
| 20260506001401 | 51 | 302 | 0.0 | 0.0 | 0.00 | 0.32 | 0.09 | 58 | 1008.8 |
| 20260506001317 | 51 | 302 | 0.0 | 0.0 | 0.00 | 0.32 | 0.09 | 60 | 1008.7 |
| 20260506001207 | 51 | 302 | 0.0 | 0.0 | 0.00 | 0.32 | 0.09 | 59 | 1008.7 |
| 20260506001058 | 51 | 302 | 0.0 | 0.0 | 0.00 | 0.32 | 0.09 | 59 | 1008.6 |
| 20260506001008 | 51 | 302 | 0.0 | 0.0 | 0.00 | 0.32 | 0.09 | 58 | 1008.6 |
| 20260506000920 | 51 | 302 | 0.0 | 0.0 | 0.00 | 0.32 | 0.09 | 58 | 1008.7 |
| 20260506000831 | 51 | 302 | 0.0 | 0.0 | 0.00 | 0.32 | 0.09 | 60 | 1008.7 |
| 20260506000700 | 51 | 302 | 0.0 | 0.0 | 0.00 | 0.32 | 0.09 | 62 | 1008.8 |
| 20260506000612 | 51 | 302 | 0.0 | 0.0 | 0.00 | 0.32 | 0.09 | 61 | 1008.8 |
| 20260506000523 | 51 | 302 | 0.0 | 0.0 | 0.00 | 0.32 | 0.09 | 59 | 1008.9 |
| 20260506000413 | 51 | 302 | 0.0 | 0.0 | 0.00 | 0.32 | 0.09 | 57 | 1008.8 |
| 20260506000311 | 51 | 302 | 0.0 | 0.0 | 0.00 | 0.32 | 0.09 | 58 | 1008.7 |
| 20260506000219 | 51 | 302 | 0.0 | 0.0 | 0.00 | 0.42 | 0.09 | 59 | 1008.7 |
| 20260506000130 | 51 | 302 | 0.0 | 1.0 | 0.00 | 0.42 | 0.09 | 59 | 1008.7 |
| 20260506000051 | 51 | 302 | 0.0 | 1.0 | 0.00 | 0.42 | 0.09 | 61 | 1008.8 |
| 20260505235859 | 51 | 302 | 0.0 | 1.0 | 0.00 | 0.42 | 0.09 | 58 | 1008.8 |
| 20260505235810 | 51 | 302 | 0.0 | 1.0 | 0.00 | 0.42 | 0.09 | 57 | 1008.8 |
| 20260505235700 | 51 | 302 | 0.0 | 1.0 | 0.00 | 0.42 | 0.09 | 59 | 1008.8 |
| 20260505235612 | 51 | 302 | 0.0 | 1.0 | 0.00 | 0.42 | 0.09 | 57 | 1008.8 |
| 20260505235502 | 51 | 302 | 0.0 | 1.0 | 0.00 | 0.42 | 0.09 | 57 | 1008.8 |
| 20260505235417 | 51 | 302 | 0.0 | 2.0 | 0.00 | 0.42 | 0.09 | 59 | 1008.8 |
| 20260505235308 | 51 | 302 | 0.0 | 2.0 | 0.00 | 0.42 | 0.09 | 59 | 1008.9 |
| 20260505235158 | 51 | 302 | 0.0 | 2.0 | 0.00 | 0.42 | 0.09 | 60 | 1008.9 |
| 20260505235109 | 51 | 302 | 0.0 | 2.0 | 0.00 | 0.42 | 0.09 | 60 | 1008.9 |
| 20260505234959 | 51 | 302 | 0.0 | 2.0 | 0.00 | 0.42 | 0.09 | 60 | 1008.9 |
| 20260505234911 | 52 | 302 | 0.0 | 2.0 | 0.00 | 0.42 | 0.09 | 60 | 1009.0 |
| 20260505234821 | 52 | 302 | 0.0 | 2.0 | 0.00 | 0.42 | 0.09 | 60 | 1009.0 |
| 20260505234712 | 52 | 302 | 1.0 | 2.0 | 0.00 | 0.42 | 0.09 | 60 | 1008.9 |
| 20260505234602 | 52 | 302 | 1.0 | 2.0 | 0.00 | 0.42 | 0.09 | 60 | 1008.9 |
| 20260505234527 | 52 | 302 | 0.0 | 2.0 | 0.00 | 0.42 | 0.09 | 60 | 1009.0 |
| 20260505234418 | 52 | 302 | 0.0 | 0.0 | 0.00 | 0.42 | 0.09 | 59 | 1008.9 |
| 20260505234200 | 52 | 302 | 0.0 | 0.0 | 0.00 | 0.42 | 0.09 | 57 | 1009.0 |
| 20260505234110 | 52 | 302 | 0.0 | 0.0 | 0.00 | 0.42 | 0.09 | 55 | 1009.0 |
| 20260505234021 | 52 | 302 | 0.0 | 0.0 | 0.00 | 0.42 | 0.09 | 57 | 1008.9 |
| 20260505233932 | 52 | 302 | 0.0 | 0.0 | 0.00 | 0.42 | 0.09 | 57 | 1009.0 |
| 20260505233822 | 52 | 302 | 0.0 | 0.0 | 0.00 | 0.42 | 0.09 | 58 | 1009.0 |
| 20260505233711 | 52 | 302 | 0.0 | 0.0 | 0.00 | 0.42 | 0.09 | 59 | 1008.9 |
| 20260505233603 | 52 | 302 | 0.0 | 0.0 | 0.00 | 0.42 | 0.09 | 60 | 1008.9 |
| 20260505233517 | 52 | 302 | 0.0 | 0.0 | 0.00 | 0.42 | 0.09 | 59 | 1008.9 |
| 20260505233408 | 52 | 302 | 0.0 | 0.0 | 0.00 | 0.42 | 0.09 | 58 | 1009.0 |
| 20260505233320 | 52 | 302 | 0.0 | 0.0 | 0.00 | 0.42 | 0.09 | 57 | 1009.1 |
| 20260505233209 | 52 | 302 | 0.0 | 0.0 | 0.00 | 0.42 | 0.09 | 57 | 1009.0 |
| 20260505233119 | 52 | 302 | 0.0 | 0.0 | 0.00 | 0.42 | 0.09 | 56 | 1009.0 |
| 20260505233021 | 52 | 302 | 0.0 | 1.0 | 0.00 | 0.42 | 0.09 | 57 | 1009.0 |
| 20260505232911 | 52 | 302 | 0.0 | 2.0 | 0.00 | 0.42 | 0.09 | 57 | 1009.0 |
| 20260505232823 | 52 | 302 | 0.0 | 2.0 | 0.00 | 0.42 | 0.09 | 59 | 1009.1 |
| 20260505232734 | 52 | 302 | 0.0 | 2.0 | 0.00 | 0.42 | 0.09 | 58 | 1009.0 |
| 20260505232603 | 52 | 302 | 0.0 | 2.0 | 0.00 | 0.42 | 0.09 | 57 | 1008.9 |
| 20260505232519 | 52 | 302 | 0.0 | 2.0 | 0.00 | 0.42 | 0.09 | 59 | 1009.0 |
| 20260505232409 | 52 | 302 | 0.0 | 2.0 | 0.00 | 0.42 | 0.09 | 60 | 1009.0 |
| 20260505232301 | 52 | 302 | 0.0 | 2.0 | 0.00 | 0.42 | 0.09 | 59 | 1009.0 |
| 20260505232212 | 52 | 302 | 0.0 | 2.0 | 0.00 | 0.42 | 0.09 | 59 | 1009.1 |
| 20260505232103 | 52 | 302 | 0.0 | 2.0 | 0.00 | 0.42 | 0.09 | 60 | 1009.1 |
| 20260505232015 | 52 | 302 | 0.0 | 0.0 | 0.00 | 0.42 | 0.09 | 60 | 1009.0 |
| 20260505231906 | 52 | 302 | 0.0 | 0.0 | 0.00 | 0.42 | 0.09 | 62 | 1009.0 |
| 20260505231816 | 52 | 302 | 0.0 | 0.0 | 0.00 | 0.42 | 0.09 | 62 | 1008.9 |
| 20260505231707 | 52 | 302 | 0.0 | 0.0 | 0.00 | 0.42 | 0.09 | 60 | 1009.0 |
| 20260505231602 | 52 | 302 | 0.0 | 0.0 | 0.00 | 0.42 | 0.09 | 61 | 1009.1 |
| 20260505231525 | 52 | 302 | 0.0 | 0.0 | 0.00 | 0.42 | 0.09 | 61 | 1009.0 |
| 20260505231414 | 52 | 302 | 0.0 | 0.0 | 0.00 | 0.42 | 0.09 | 59 | 1009.0 |
| 20260505231325 | 52 | 302 | 0.0 | 0.0 | 0.00 | 0.42 | 0.09 | 59 | 1009.0 |
| 20260505231216 | 52 | 302 | 0.0 | 0.0 | 0.00 | 0.42 | 0.09 | 60 | 1009.0 |
| 20260505231127 | 52 | 302 | 0.0 | 0.0 | 0.00 | 0.42 | 0.09 | 59 | 1009.0 |
| 20260505231037 | 52 | 302 | 0.0 | 0.0 | 0.00 | 0.42 | 0.09 | 58 | 1009.0 |
| 20260505230907 | 52 | 302 | 0.0 | 0.0 | 0.00 | 0.42 | 0.09 | 58 | 1009.0 |
| 20260505230817 | 52 | 302 | 0.0 | 0.0 | 0.00 | 0.42 | 0.09 | 58 | 1009.0 |
| 20260505230708 | 52 | 302 | 0.0 | 0.0 | 0.00 | 0.42 | 0.09 | 59 | 1009.0 |
| 20260505230602 | 52 | 302 | 0.0 | 0.0 | 0.00 | 0.42 | 0.09 | 60 | 1009.1 |
| 20260505230512 | 52 | 302 | 0.0 | 0.0 | 0.00 | 0.42 | 0.09 | 59 | 1009.1 |
| 20260505230424 | 52 | 302 | 0.0 | 0.0 | 0.00 | 0.42 | 0.09 | 58 | 1009.1 |
| 20260505230334 | 52 | 302 | 0.0 | 0.0 | 0.00 | 0.42 | 0.09 | 56 | 1009.1 |
| 20260505230246 | 52 | 302 | 0.0 | 0.0 | 0.00 | 0.42 | 0.09 | 56 | 1009.1 |
| 20260505230154 | 52 | 302 | 0.0 | 0.0 | 0.00 | 0.46 | 0.09 | 57 | 1009.2 |
| 20260505230056 | 52 | 302 | 0.0 | 0.0 | 0.00 | 0.46 | 0.09 | 56 | 1009.2 |
| 20260505225904 | 52 | 302 | 0.0 | 0.0 | 0.00 | 0.46 | 0.09 | 57 | 1009.2 |
| 20260505225816 | 52 | 302 | 0.0 | 1.0 | 0.00 | 0.46 | 0.09 | 57 | 1009.2 |
| 20260505225728 | 52 | 302 | 0.0 | 2.0 | 0.00 | 0.46 | 0.09 | 56 | 1009.2 |
| 20260505225601 | 52 | 302 | 0.0 | 2.0 | 0.00 | 0.46 | 0.09 | 58 | 1009.2 |
| 20260505225513 | 52 | 302 | 0.0 | 2.0 | 0.00 | 0.46 | 0.09 | 59 | 1009.2 |
| 20260505225403 | 52 | 302 | 0.0 | 2.0 | 0.00 | 0.46 | 0.09 | 58 | 1009.2 |
| 20260505225314 | 52 | 302 | 0.0 | 2.0 | 0.00 | 0.46 | 0.09 | 58 | 1009.2 |
| 20260505225204 | 52 | 302 | 0.0 | 2.0 | 0.00 | 0.46 | 0.09 | 59 | 1009.3 |
| 20260505225114 | 52 | 302 | 0.0 | 2.0 | 0.00 | 0.46 | 0.09 | 59 | 1009.2 |
| 20260505225005 | 52 | 302 | 0.0 | 2.0 | 0.00 | 0.46 | 0.09 | 57 | 1009.3 |
| 20260505224915 | 52 | 302 | 0.0 | 2.0 | 0.00 | 0.46 | 0.09 | 59 | 1009.3 |
| 20260505224806 | 52 | 302 | 0.0 | 0.0 | 0.00 | 0.46 | 0.09 | 60 | 1009.3 |
| 20260505224701 | 52 | 302 | 0.0 | 0.0 | 0.00 | 0.46 | 0.09 | 59 | 1009.3 |
| 20260505224604 | 52 | 302 | 0.0 | 0.0 | 0.00 | 0.46 | 0.09 | 60 | 1009.3 |
| 20260505224454 | 52 | 302 | 0.0 | 0.0 | 0.00 | 0.46 | 0.09 | 59 | 1009.3 |
| 20260505224332 | 52 | 302 | 0.0 | 0.0 | 0.00 | 0.46 | 0.09 | 59 | 1009.3 |
| 20260505224221 | 52 | 302 | 0.0 | 0.0 | 0.00 | 0.46 | 0.09 | 59 | 1009.2 |
| 20260505224112 | 52 | 302 | 0.0 | 0.0 | 0.00 | 0.46 | 0.09 | 59 | 1009.2 |
| 20260505224004 | 52 | 302 | 0.0 | 0.0 | 0.00 | 0.46 | 0.09 | 59 | 1009.3 |
| 20260505223915 | 52 | 302 | 0.0 | 0.0 | 0.00 | 0.46 | 0.09 | 58 | 1009.3 |
| 20260505223824 | 52 | 302 | 0.0 | 0.0 | 0.00 | 0.46 | 0.09 | 58 | 1009.3 |
| 20260505223713 | 52 | 302 | 0.0 | 0.0 | 0.00 | 0.46 | 0.09 | 58 | 1009.2 |
| 20260505223609 | 52 | 302 | 0.0 | 0.0 | 0.00 | 0.46 | 0.09 | 59 | 1009.3 |
| 20260505223501 | 52 | 302 | 0.0 | 0.0 | 0.00 | 0.46 | 0.09 | 59 | 1009.2 |
| 20260505223412 | 52 | 302 | 0.0 | 0.0 | 0.00 | 0.46 | 0.09 | 60 | 1009.2 |
| 20260505223325 | 52 | 302 | 0.0 | 0.0 | 0.00 | 0.46 | 0.09 | 59 | 1009.2 |
| 20260505223214 | 52 | 302 | 0.0 | 0.0 | 0.00 | 0.46 | 0.09 | 58 | 1009.2 |
| 20260505223117 | 52 | 302 | 0.0 | 0.0 | 0.00 | 0.46 | 0.09 | 59 | 1009.3 |
| 20260505223019 | 52 | 302 | 0.0 | 0.0 | 0.00 | 0.46 | 0.09 | 59 | 1009.3 |
| 20260505222909 | 52 | 302 | 0.0 | 0.0 | 0.00 | 0.46 | 0.09 | 58 | 1009.3 |
| 20260505222801 | 52 | 302 | 0.0 | 1.0 | 0.00 | 0.46 | 0.09 | 58 | 1009.3 |
| 20260505222716 | 52 | 302 | 0.0 | 2.0 | 0.00 | 0.46 | 0.09 | 58 | 1009.3 |
| 20260505222607 | 52 | 302 | 0.0 | 2.0 | 0.00 | 0.46 | 0.09 | 57 | 1009.3 |
| 20260505222458 | 52 | 302 | 0.0 | 2.0 | 0.00 | 0.46 | 0.09 | 57 | 1009.3 |
| 20260505222409 | 52 | 302 | 0.0 | 2.0 | 0.00 | 0.46 | 0.09 | 57 | 1009.3 |
| 20260505222300 | 52 | 302 | 0.0 | 2.0 | 0.00 | 0.46 | 0.09 | 57 | 1009.3 |
| 20260505222210 | 52 | 302 | 0.0 | 2.0 | 0.00 | 0.46 | 0.09 | 57 | 1009.3 |
| 20260505222102 | 52 | 302 | 0.0 | 2.0 | 0.00 | 0.46 | 0.09 | 57 | 1009.3 |
| 20260505222013 | 52 | 302 | 1.0 | 2.0 | 0.00 | 0.46 | 0.09 | 55 | 1009.3 |
| 20260505221926 | 52 | 302 | 1.0 | 2.0 | 0.00 | 0.46 | 0.09 | 54 | 1009.3 |
| 20260505221841 | 52 | 302 | 1.0 | 2.0 | 0.00 | 0.46 | 0.09 | 55 | 1009.2 |
| 20260505221731 | 52 | 302 | 0.0 | 2.0 | 0.00 | 0.46 | 0.09 | 56 | 1009.1 |
| 20260505221622 | 52 | 302 | 0.0 | 2.0 | 0.00 | 0.46 | 0.09 | 55 | 1009.1 |
| 20260505221545 | 52 | 302 | 0.0 | 2.0 | 0.00 | 0.46 | 0.09 | 53 | 1009.2 |
| 20260505221414 | 52 | 302 | 0.0 | 2.0 | 0.00 | 0.46 | 0.09 | 53 | 1009.2 |
| 20260505221305 | 52 | 302 | 0.0 | 2.0 | 0.00 | 0.46 | 0.09 | 54 | 1009.2 |
| 20260505221217 | 52 | 302 | 0.0 | 2.0 | 0.00 | 0.46 | 0.09 | 56 | 1009.1 |
| 20260505221108 | 52 | 302 | 0.0 | 2.0 | 0.00 | 0.46 | 0.09 | 55 | 1009.2 |
| 20260505220959 | 52 | 302 | 0.0 | 2.0 | 0.00 | 0.46 | 0.09 | 55 | 1009.4 |
| 20260505220911 | 52 | 302 | 0.0 | 2.0 | 0.00 | 0.46 | 0.09 | 55 | 1009.2 |
| 20260505220805 | 52 | 302 | 1.0 | 2.0 | 0.00 | 0.46 | 0.09 | 54 | 1009.2 |
| 20260505220717 | 52 | 302 | 1.0 | 2.0 | 0.00 | 0.46 | 0.09 | 52 | 1009.3 |
| 20260505220607 | 52 | 302 | 0.0 | 2.0 | 0.00 | 0.46 | 0.09 | 54 | 1009.2 |
| 20260505220518 | 52 | 302 | 0.0 | 2.0 | 0.00 | 0.46 | 0.09 | 54 | 1009.2 |
| 20260505220428 | 52 | 302 | 0.0 | 2.0 | 0.00 | 0.46 | 0.09 | 56 | 1009.1 |
| 20260505220319 | 52 | 302 | 0.0 | 2.0 | 0.00 | 0.46 | 0.09 | 55 | 1009.2 |
| 20260505220208 | 52 | 302 | 0.0 | 3.0 | 0.00 | 0.46 | 0.09 | 54 | 1009.2 |
| 20260505220119 | 52 | 302 | 0.0 | 3.0 | 0.00 | 0.46 | 0.09 | 54 | 1009.2 |
| 20260505220021 | 52 | 302 | 0.0 | 3.0 | 0.00 | 0.46 | 0.09 | 54 | 1009.2 |
| 20260505215910 | 52 | 302 | 0.0 | 3.0 | 0.00 | 0.46 | 0.09 | 55 | 1009.1 |
| 20260505215805 | 52 | 302 | 0.0 | 3.0 | 0.00 | 0.46 | 0.09 | 56 | 1009.2 |
| 20260505215717 | 52 | 302 | 0.0 | 3.0 | 0.00 | 0.46 | 0.09 | 54 | 1009.2 |
| 20260505215608 | 52 | 302 | 0.0 | 3.0 | 0.00 | 0.46 | 0.09 | 55 | 1009.1 |
| 20260505215459 | 52 | 302 | 0.0 | 3.0 | 0.00 | 0.46 | 0.09 | 53 | 1009.2 |
| 20260505215411 | 52 | 302 | 1.0 | 3.0 | 0.00 | 0.46 | 0.09 | 53 | 1009.1 |
| 20260505215305 | 52 | 302 | 1.0 | 4.0 | 0.00 | 0.46 | 0.09 | 53 | 1009.2 |
| 20260505215214 | 52 | 302 | 2.0 | 4.0 | 0.00 | 0.46 | 0.09 | 53 | 1009.2 |
| 20260505215104 | 52 | 302 | 2.0 | 4.0 | 0.00 | 0.46 | 0.09 | 53 | 1009.1 |
| 20260505215019 | 52 | 302 | 1.0 | 4.0 | 0.00 | 0.46 | 0.09 | 53 | 1009.1 |
| 20260505214910 | 52 | 302 | 1.0 | 4.0 | 0.00 | 0.46 | 0.09 | 52 | 1009.2 |
| 20260505214802 | 52 | 302 | 1.0 | 4.0 | 0.00 | 0.46 | 0.09 | 51 | 1009.2 |
| 20260505214711 | 52 | 302 | 2.0 | 4.0 | 0.00 | 0.46 | 0.09 | 50 | 1009.1 |
| 20260505214622 | 52 | 302 | 3.0 | 4.0 | 0.00 | 0.46 | 0.09 | 50 | 1009.1 |
| 20260505214545 | 52 | 302 | 3.0 | 4.0 | 0.00 | 0.46 | 0.09 | 50 | 1009.1 |
| 20260505214435 | 52 | 302 | 1.0 | 3.0 | 0.00 | 0.46 | 0.09 | 54 | 1009.1 |
| 20260505214303 | 52 | 302 | 0.0 | 2.0 | 0.00 | 0.46 | 0.09 | 57 | 1009.0 |
| 20260505214214 | 52 | 302 | 0.0 | 2.0 | 0.00 | 0.46 | 0.09 | 57 | 1009.2 |
| 20260505214105 | 52 | 302 | 0.0 | 2.0 | 0.00 | 0.46 | 0.09 | 55 | 1009.0 |
| 20260505214001 | 52 | 302 | 0.0 | 2.0 | 0.00 | 0.46 | 0.09 | 56 | 1009.0 |
| 20260505213911 | 52 | 302 | 0.0 | 2.0 | 0.00 | 0.46 | 0.09 | 56 | 1009.1 |
| 20260505213822 | 52 | 302 | 0.0 | 2.0 | 0.00 | 0.46 | 0.09 | 55 | 1009.1 |
| 20260505213711 | 52 | 302 | 0.0 | 2.0 | 0.00 | 0.46 | 0.09 | 58 | 1009.1 |
| 20260505213602 | 52 | 302 | 0.0 | 2.0 | 0.00 | 0.46 | 0.09 | 55 | 1009.1 |
| 20260505213514 | 51 | 302 | 1.0 | 3.0 | 0.00 | 0.46 | 0.09 | 54 | 1009.1 |
| 20260505213404 | 51 | 302 | 1.0 | 3.0 | 0.00 | 0.46 | 0.09 | 53 | 1009.1 |